Wetterdaten: aktuell Mittwoch, 24.07.2019 07:25
Datum Zeit Temp. 2m Temp. 5cm Feuchte A. Luftdruck Regen Wind Richtung Richtung ET UV Solar Taupunkt Windchill Windben Empfang
24.07.2019 07:25 19,7 C 16,7 C 74 % 1018,0 hPa 0,0 l/m 6,4 km/h (2 Bft) O 90 0,000 mm 0,0 UV-I 49 W/m 14,9 C 19,7 C 16,1 km/h (3 Bft) 82,61 %
24.07.2019 07:24 19,7 C 16,7 C 75 % 1018,0 hPa 0,0 l/m 9,7 km/h (2 Bft) O-NO 67 0,000 mm 0,0 UV-I 62 W/m 15,1 C 18,4 C 12,9 km/h (3 Bft) 82,61 %
24.07.2019 07:23 19,7 C 16,7 C 76 % 1017,9 hPa 0,0 l/m 3,2 km/h (1 Bft) O 90 0,000 mm 0,0 UV-I 81 W/m 15,3 C 19,7 C 6,4 km/h (2 Bft) 86,96 %
24.07.2019 07:22 19,7 C 16,7 C 76 % 1017,9 hPa 0,0 l/m 6,4 km/h (2 Bft) O-NO 67 0,000 mm 0,0 UV-I 113 W/m 15,3 C 19,7 C 12,9 km/h (3 Bft) 73,91 %
24.07.2019 07:21 19,7 C 16,7 C 76 % 1018,0 hPa 0,0 l/m 6,4 km/h (2 Bft) O 90 0,000 mm 0,0 UV-I 102 W/m 15,3 C 19,7 C 12,9 km/h (3 Bft) 95,65 %
24.07.2019 07:20 19,7 C 16,7 C 76 % 1018,0 hPa 0,0 l/m 6,4 km/h (2 Bft) O 90 0,000 mm 0,0 UV-I 62 W/m 15,3 C 19,7 C 11,3 km/h (2 Bft) 86,96 %
24.07.2019 07:19 19,7 C 16,7 C 76 % 1018,0 hPa 0,0 l/m 8,0 km/h (2 Bft) O 90 0,000 mm 0,0 UV-I 54 W/m 15,3 C 19,0 C 12,9 km/h (3 Bft) 86,96 %
24.07.2019 07:18 19,7 C 16,7 C 75 % 1018,0 hPa 0,0 l/m 6,4 km/h (2 Bft) O-NO 67 0,000 mm 0,0 UV-I 49 W/m 15,1 C 19,7 C 11,3 km/h (2 Bft) 73,91 %
24.07.2019 07:17 19,7 C 16,7 C 75 % 1018,0 hPa 0,0 l/m 4,8 km/h (1 Bft) O-NO 67 0,000 mm 0,0 UV-I 46 W/m 15,1 C 19,7 C 11,3 km/h (2 Bft) 82,61 %
24.07.2019 07:16 19,6 C 16,7 C 75 % 1018,0 hPa 0,0 l/m 4,8 km/h (1 Bft) O 90 0,000 mm 0,0 UV-I 46 W/m 15,0 C 19,6 C 6,4 km/h (2 Bft) 86,96 %
24.07.2019 07:15 19,6 C 16,7 C 75 % 1018,0 hPa 0,0 l/m 11,3 km/h (2 Bft) O-NO 67 0,000 mm 0,0 UV-I 46 W/m 15,0 C 17,8 C 19,3 km/h (3 Bft) 82,61 %
24.07.2019 07:14 19,6 C 16,7 C 75 % 1018,0 hPa 0,0 l/m 11,3 km/h (2 Bft) O-NO 67 0,000 mm 0,0 UV-I 46 W/m 15,0 C 17,8 C 16,1 km/h (3 Bft) 86,96 %
24.07.2019 07:13 19,6 C 16,7 C 76 % 1018,0 hPa 0,0 l/m 8,0 km/h (2 Bft) O 90 0,000 mm 0,0 UV-I 46 W/m 15,2 C 18,9 C 20,9 km/h (4 Bft) 86,96 %
24.07.2019 07:12 19,6 C 16,7 C 76 % 1018,0 hPa 0,0 l/m 8,0 km/h (2 Bft) O 90 0,000 mm 0,0 UV-I 47 W/m 15,2 C 18,9 C 14,5 km/h (3 Bft) 69,57 %
24.07.2019 07:11 19,6 C 16,7 C 75 % 1017,9 hPa 0,0 l/m 12,9 km/h (3 Bft) O 90 0,000 mm 0,0 UV-I 40 W/m 15,0 C 17,3 C 20,9 km/h (4 Bft) 86,96 %
24.07.2019 07:10 19,5 C 16,7 C 75 % 1017,9 hPa 0,0 l/m 6,4 km/h (2 Bft) O 90 0,000 mm 0,0 UV-I 40 W/m 14,9 C 19,5 C 9,7 km/h (2 Bft) 91,30 %
24.07.2019 07:09 19,6 C 16,7 C 76 % 1018,0 hPa 0,0 l/m 8,0 km/h (2 Bft) O 90 0,000 mm 0,0 UV-I 39 W/m 15,2 C 18,9 C 14,5 km/h (3 Bft) 78,26 %
24.07.2019 07:08 19,6 C 16,7 C 76 % 1017,9 hPa 0,0 l/m 9,7 km/h (2 Bft) O 90 0,000 mm 0,0 UV-I 37 W/m 15,2 C 18,3 C 16,1 km/h (3 Bft) 86,96 %
24.07.2019 07:07 19,6 C 16,7 C 75 % 1017,9 hPa 0,0 l/m 9,7 km/h (2 Bft) O 90 0,000 mm 0,0 UV-I 37 W/m 15,0 C 18,3 C 16,1 km/h (3 Bft) 82,61 %
24.07.2019 07:06 19,6 C 16,7 C 75 % 1017,9 hPa 0,0 l/m 6,4 km/h (2 Bft) O 90 0,000 mm 0,0 UV-I 37 W/m 15,0 C 19,6 C 9,7 km/h (2 Bft) 86,96 %
24.07.2019 07:05 19,6 C 16,7 C 75 % 1017,9 hPa 0,0 l/m 9,7 km/h (2 Bft) O 90 0,000 mm 0,0 UV-I 37 W/m 15,0 C 18,3 C 14,5 km/h (3 Bft) 91,30 %
24.07.2019 07:04 19,6 C 16,7 C 76 % 1017,9 hPa 0,0 l/m 9,7 km/h (2 Bft) O 90 0,000 mm 0,0 UV-I 39 W/m 15,2 C 18,3 C 16,1 km/h (3 Bft) 73,91 %
24.07.2019 07:03 19,6 C 16,7 C 76 % 1017,9 hPa 0,0 l/m 8,0 km/h (2 Bft) O 90 0,000 mm 0,0 UV-I 39 W/m 15,2 C 18,9 C 19,3 km/h (3 Bft) 86,96 %
24.07.2019 07:02 19,6 C 16,7 C 75 % 1017,9 hPa 0,0 l/m 11,3 km/h (2 Bft) O 90 0,000 mm 0,0 UV-I 35 W/m 15,0 C 17,8 C 19,3 km/h (3 Bft) 91,30 %
24.07.2019 07:01 19,7 C 16,1 C 76 % 1017,9 hPa 0,0 l/m 8,0 km/h (2 Bft) O 90 0,000 mm 0,0 UV-I 35 W/m 15,3 C 19,0 C 16,1 km/h (3 Bft) 86,96 %
24.07.2019 07:00 19,7 C 16,1 C 75 % 1017,9 hPa 0,0 l/m 9,7 km/h (2 Bft) O 90 0,051 mm 0,0 UV-I 35 W/m 15,1 C 18,4 C 14,5 km/h (3 Bft) 95,65 %
24.07.2019 06:59 19,7 C 16,1 C 75 % 1018,0 hPa 0,0 l/m 6,4 km/h (2 Bft) O 90 0,000 mm 0,0 UV-I 37 W/m 15,1 C 19,7 C 11,3 km/h (2 Bft) 82,61 %
24.07.2019 06:58 19,7 C 16,1 C 75 % 1017,9 hPa 0,0 l/m 4,8 km/h (1 Bft) O 90 0,000 mm 0,0 UV-I 35 W/m 15,1 C 19,7 C 12,9 km/h (3 Bft) 95,65 %
24.07.2019 06:57 19,7 C 16,1 C 75 % 1018,0 hPa 0,0 l/m 6,4 km/h (2 Bft) O-SO 112 0,000 mm 0,0 UV-I 39 W/m 15,1 C 19,7 C 14,5 km/h (3 Bft) 91,30 %
24.07.2019 06:56 19,7 C 16,1 C 75 % 1017,9 hPa 0,0 l/m 6,4 km/h (2 Bft) O-SO 112 0,000 mm 0,0 UV-I 39 W/m 15,1 C 19,7 C 9,7 km/h (2 Bft) 91,30 %
24.07.2019 06:55 19,7 C 16,1 C 75 % 1017,9 hPa 0,0 l/m 9,7 km/h (2 Bft) O 90 0,000 mm 0,0 UV-I 37 W/m 15,1 C 18,4 C 16,1 km/h (3 Bft) 91,30 %
24.07.2019 06:54 19,7 C 16,1 C 74 % 1017,9 hPa 0,0 l/m 8,0 km/h (2 Bft) O-NO 67 0,000 mm 0,0 UV-I 37 W/m 14,9 C 19,0 C 14,5 km/h (3 Bft) 95,65 %
24.07.2019 06:53 19,7 C 16,1 C 74 % 1017,9 hPa 0,0 l/m 6,4 km/h (2 Bft) O 90 0,000 mm 0,0 UV-I 37 W/m 14,9 C 19,7 C 12,9 km/h (3 Bft) 82,61 %
24.07.2019 06:52 19,7 C 16,1 C 74 % 1017,9 hPa 0,0 l/m 9,7 km/h (2 Bft) O 90 0,000 mm 0,0 UV-I 37 W/m 14,9 C 18,4 C 14,5 km/h (3 Bft) 95,65 %
24.07.2019 06:51 19,7 C 16,1 C 74 % 1017,8 hPa 0,0 l/m 9,7 km/h (2 Bft) O 90 0,000 mm 0,0 UV-I 37 W/m 14,9 C 18,4 C 16,1 km/h (3 Bft) 82,61 %
24.07.2019 06:50 19,7 C 16,1 C 74 % 1017,8 hPa 0,0 l/m 8,0 km/h (2 Bft) O-NO 67 0,000 mm 0,0 UV-I 37 W/m 14,9 C 19,0 C 17,7 km/h (3 Bft) 91,30 %
24.07.2019 06:49 19,7 C 16,1 C 74 % 1017,9 hPa 0,0 l/m 8,0 km/h (2 Bft) O 90 0,000 mm 0,0 UV-I 35 W/m 14,9 C 19,0 C 14,5 km/h (3 Bft) 95,65 %
24.07.2019 06:48 19,7 C 16,1 C 74 % 1017,9 hPa 0,0 l/m 8,0 km/h (2 Bft) O 90 0,000 mm 0,0 UV-I 35 W/m 14,9 C 19,0 C 12,9 km/h (3 Bft) 95,65 %
24.07.2019 06:47 19,7 C 16,1 C 74 % 1017,8 hPa 0,0 l/m 6,4 km/h (2 Bft) O 90 0,000 mm 0,0 UV-I 35 W/m 14,9 C 19,7 C 12,9 km/h (3 Bft) 100,00 %
24.07.2019 06:46 19,7 C 16,1 C 74 % 1017,8 hPa 0,0 l/m 8,0 km/h (2 Bft) O 90 0,000 mm 0,0 UV-I 35 W/m 14,9 C 19,0 C 14,5 km/h (3 Bft) 100,00 %
24.07.2019 06:45 19,7 C 16,1 C 74 % 1017,8 hPa 0,0 l/m 9,7 km/h (2 Bft) O 90 0,000 mm 0,0 UV-I 35 W/m 14,9 C 18,4 C 16,1 km/h (3 Bft) 91,30 %
24.07.2019 06:44 19,7 C 16,1 C 74 % 1017,8 hPa 0,0 l/m 6,4 km/h (2 Bft) O 90 0,000 mm 0,0 UV-I 33 W/m 14,9 C 19,7 C 11,3 km/h (2 Bft) 86,96 %
24.07.2019 06:43 19,6 C 16,1 C 74 % 1017,7 hPa 0,0 l/m 9,7 km/h (2 Bft) O 90 0,000 mm 0,0 UV-I 33 W/m 14,8 C 18,3 C 14,5 km/h (3 Bft) 86,96 %
24.07.2019 06:42 19,6 C 16,1 C 74 % 1017,8 hPa 0,0 l/m 4,8 km/h (1 Bft) O 90 0,000 mm 0,0 UV-I 33 W/m 14,8 C 19,6 C 8,0 km/h (2 Bft) 86,96 %
24.07.2019 06:41 19,6 C 16,1 C 74 % 1017,8 hPa 0,0 l/m 11,3 km/h (2 Bft) O 90 0,000 mm 0,0 UV-I 33 W/m 14,8 C 17,8 C 16,1 km/h (3 Bft) 91,30 %
24.07.2019 06:40 19,6 C 16,1 C 74 % 1017,8 hPa 0,0 l/m 8,0 km/h (2 Bft) O 90 0,000 mm 0,0 UV-I 33 W/m 14,8 C 18,9 C 14,5 km/h (3 Bft) 95,65 %
24.07.2019 06:39 19,6 C 16,1 C 74 % 1017,8 hPa 0,0 l/m 4,8 km/h (1 Bft) O 90 0,000 mm 0,0 UV-I 32 W/m 14,8 C 19,6 C 11,3 km/h (2 Bft) 78,26 %
24.07.2019 06:38 19,5 C 16,1 C 74 % 1017,8 hPa 0,0 l/m 8,0 km/h (2 Bft) O 90 0,000 mm 0,0 UV-I 32 W/m 14,7 C 18,8 C 12,9 km/h (3 Bft) 86,96 %
24.07.2019 06:37 19,4 C 16,1 C 74 % 1017,8 hPa 0,0 l/m 6,4 km/h (2 Bft) O 90 0,000 mm 0,0 UV-I 32 W/m 14,6 C 19,4 C 17,7 km/h (3 Bft) 91,30 %
24.07.2019 06:36 19,4 C 16,1 C 74 % 1017,8 hPa 0,0 l/m 11,3 km/h (2 Bft) O 90 0,000 mm 0,0 UV-I 32 W/m 14,6 C 17,6 C 17,7 km/h (3 Bft) 95,65 %
24.07.2019 06:35 19,4 C 16,1 C 75 % 1017,8 hPa 0,0 l/m 6,4 km/h (2 Bft) O 90 0,000 mm 0,0 UV-I 32 W/m 14,8 C 19,4 C 12,9 km/h (3 Bft) 82,61 %
24.07.2019 06:34 19,4 C 16,1 C 74 % 1017,8 hPa 0,0 l/m 6,4 km/h (2 Bft) O 90 0,000 mm 0,0 UV-I 32 W/m 14,6 C 19,4 C 14,5 km/h (3 Bft) 82,61 %
24.07.2019 06:33 19,3 C 16,1 C 75 % 1017,8 hPa 0,0 l/m 9,7 km/h (2 Bft) O 90 0,000 mm 0,0 UV-I 30 W/m 14,8 C 18,0 C 14,5 km/h (3 Bft) 91,30 %
24.07.2019 06:32 19,3 C 16,1 C 75 % 1017,8 hPa 0,0 l/m 9,7 km/h (2 Bft) O-NO 67 0,000 mm 0,0 UV-I 30 W/m 14,8 C 18,0 C 12,9 km/h (3 Bft) 91,30 %
24.07.2019 06:31 19,3 C 15,6 C 76 % 1017,8 hPa 0,0 l/m 6,4 km/h (2 Bft) O 90 0,000 mm 0,0 UV-I 30 W/m 15,0 C 19,3 C 9,7 km/h (2 Bft) 82,61 %
24.07.2019 06:30 19,2 C 15,6 C 75 % 1017,8 hPa 0,0 l/m 4,8 km/h (1 Bft) O 90 0,000 mm 0,0 UV-I 30 W/m 14,7 C 19,2 C 6,4 km/h (2 Bft) 95,65 %
24.07.2019 06:29 19,2 C 15,6 C 75 % 1017,8 hPa 0,0 l/m 6,4 km/h (2 Bft) O 90 0,000 mm 0,0 UV-I 28 W/m 14,7 C 19,2 C 9,7 km/h (2 Bft) 86,96 %
24.07.2019 06:28 19,1 C 15,6 C 75 % 1017,8 hPa 0,0 l/m 6,4 km/h (2 Bft) O-NO 67 0,000 mm 0,0 UV-I 28 W/m 14,6 C 19,1 C 12,9 km/h (3 Bft) 82,61 %
24.07.2019 06:27 19,0 C 15,6 C 76 % 1017,8 hPa 0,0 l/m 6,4 km/h (2 Bft) O 90 0,000 mm 0,0 UV-I 28 W/m 14,7 C 19,0 C 9,7 km/h (2 Bft) 95,65 %
24.07.2019 06:26 19,0 C 15,6 C 76 % 1017,8 hPa 0,0 l/m 6,4 km/h (2 Bft) O 90 0,000 mm 0,0 UV-I 28 W/m 14,7 C 19,0 C 9,7 km/h (2 Bft) 69,57 %
24.07.2019 06:25 18,9 C 15,6 C 77 % 1017,8 hPa 0,0 l/m 6,4 km/h (2 Bft) O 90 0,000 mm 0,0 UV-I 28 W/m 14,8 C 18,9 C 11,3 km/h (2 Bft) 91,30 %
24.07.2019 06:24 18,9 C 15,6 C 76 % 1017,8 hPa 0,0 l/m 8,0 km/h (2 Bft) O 90 0,000 mm 0,0 UV-I 26 W/m 14,6 C 18,2 C 12,9 km/h (3 Bft) 91,30 %
24.07.2019 06:23 18,8 C 15,6 C 76 % 1017,8 hPa 0,0 l/m 8,0 km/h (2 Bft) O 90 0,000 mm 0,0 UV-I 26 W/m 14,5 C 18,1 C 12,9 km/h (3 Bft) 78,26 %
24.07.2019 06:22 18,8 C 15,6 C 76 % 1017,8 hPa 0,0 l/m 4,8 km/h (1 Bft) O 90 0,000 mm 0,0 UV-I 26 W/m 14,5 C 18,8 C 9,7 km/h (2 Bft) 73,91 %
24.07.2019 06:21 18,8 C 15,6 C 76 % 1017,8 hPa 0,0 l/m 6,4 km/h (2 Bft) O 90 0,000 mm 0,0 UV-I 26 W/m 14,5 C 18,8 C 9,7 km/h (2 Bft) 69,57 %
24.07.2019 06:20 18,8 C 15,6 C 76 % 1017,8 hPa 0,0 l/m 6,4 km/h (2 Bft) O 90 0,000 mm 0,0 UV-I 26 W/m 14,5 C 18,8 C 9,7 km/h (2 Bft) 60,87 %
24.07.2019 06:19 18,8 C 15,6 C 76 % 1017,9 hPa 0,0 l/m 4,8 km/h (1 Bft) O 90 0,000 mm 0,0 UV-I 25 W/m 14,5 C 18,8 C 6,4 km/h (2 Bft) 73,91 %
24.07.2019 06:18 18,8 C 15,6 C 76 % 1017,8 hPa 0,0 l/m 4,8 km/h (1 Bft) O 90 0,000 mm 0,0 UV-I 25 W/m 14,5 C 18,8 C 6,4 km/h (2 Bft) 82,61 %
24.07.2019 06:17 18,8 C 15,6 C 76 % 1017,8 hPa 0,0 l/m 4,8 km/h (1 Bft) O 90 0,000 mm 0,0 UV-I 25 W/m 14,5 C 18,8 C 6,4 km/h (2 Bft) 73,91 %
24.07.2019 06:16 18,8 C 15,6 C 75 % 1017,7 hPa 0,0 l/m 3,2 km/h (1 Bft) O 90 0,000 mm 0,0 UV-I 25 W/m 14,3 C 18,8 C 8,0 km/h (2 Bft) 73,91 %
24.07.2019 06:15 18,8 C 15,6 C 75 % 1017,7 hPa 0,0 l/m 3,2 km/h (1 Bft) O 90 0,000 mm 0,0 UV-I 23 W/m 14,3 C 18,8 C 4,8 km/h (1 Bft) 60,87 %
24.07.2019 06:14 18,7 C 15,6 C 75 % 1017,8 hPa 0,0 l/m 3,2 km/h (1 Bft) O 90 0,000 mm 0,0 UV-I 23 W/m 14,2 C 18,7 C 4,8 km/h (1 Bft) 56,52 %
24.07.2019 06:13 18,7 C 15,6 C 75 % 1017,7 hPa 0,0 l/m 4,8 km/h (1 Bft) O 90 0,000 mm 0,0 UV-I 23 W/m 14,2 C 18,7 C 6,4 km/h (2 Bft) 65,22 %
24.07.2019 06:12 18,8 C 15,6 C 75 % 1017,7 hPa 0,0 l/m 3,2 km/h (1 Bft) O 90 0,000 mm 0,0 UV-I 23 W/m 14,3 C 18,8 C 6,4 km/h (2 Bft) 91,30 %
24.07.2019 06:11 18,7 C 15,6 C 75 % 1017,7 hPa 0,0 l/m 3,2 km/h (1 Bft) O 90 0,000 mm 0,0 UV-I 23 W/m 14,2 C 18,7 C 4,8 km/h (1 Bft) 73,91 %
24.07.2019 06:10 18,8 C 15,6 C 75 % 1017,7 hPa 0,0 l/m 3,2 km/h (1 Bft) O 90 0,000 mm 0,0 UV-I 21 W/m 14,3 C 18,8 C 6,4 km/h (2 Bft) 78,26 %
24.07.2019 06:09 18,8 C 15,6 C 75 % 1017,8 hPa 0,0 l/m 3,2 km/h (1 Bft) O 90 0,000 mm 0,0 UV-I 21 W/m 14,3 C 18,8 C 6,4 km/h (2 Bft) 78,26 %
24.07.2019 06:08 18,8 C 15,6 C 75 % 1017,7 hPa 0,0 l/m 1,6 km/h (1 Bft) O 90 0,000 mm 0,0 UV-I 21 W/m 14,3 C 18,8 C 3,2 km/h (1 Bft) 78,26 %
24.07.2019 06:07 18,9 C 15,6 C 74 % 1017,8 hPa 0,0 l/m 3,2 km/h (1 Bft) O 90 0,000 mm 0,0 UV-I 21 W/m 14,2 C 18,9 C 6,4 km/h (2 Bft) 86,96 %
24.07.2019 06:06 18,9 C 15,6 C 74 % 1017,7 hPa 0,0 l/m 4,8 km/h (1 Bft) O 90 0,000 mm 0,0 UV-I 21 W/m 14,2 C 18,9 C 6,4 km/h (2 Bft) 86,96 %
24.07.2019 06:05 18,9 C 15,6 C 74 % 1017,7 hPa 0,0 l/m 4,8 km/h (1 Bft) O 90 0,000 mm 0,0 UV-I 19 W/m 14,2 C 18,9 C 4,8 km/h (1 Bft) 73,91 %
24.07.2019 06:04 18,9 C 15,6 C 74 % 1017,8 hPa 0,0 l/m 4,8 km/h (1 Bft) O 90 0,000 mm 0,0 UV-I 19 W/m 14,2 C 18,9 C 4,8 km/h (1 Bft) 86,96 %
24.07.2019 06:03 18,9 C 15,6 C 74 % 1017,8 hPa 0,0 l/m 3,2 km/h (1 Bft) O 90 0,000 mm 0,0 UV-I 19 W/m 14,2 C 18,9 C 4,8 km/h (1 Bft) 82,61 %
24.07.2019 06:02 18,9 C 15,6 C 73 % 1017,7 hPa 0,0 l/m 4,8 km/h (1 Bft) O 90 0,000 mm 0,0 UV-I 18 W/m 13,9 C 18,9 C 8,0 km/h (2 Bft) 73,91 %
24.07.2019 06:01 19,0 C 15,6 C 73 % 1017,8 hPa 0,0 l/m 3,2 km/h (1 Bft) O 90 0,000 mm 0,0 UV-I 18 W/m 14,0 C 19,0 C 3,2 km/h (1 Bft) 60,87 %
24.07.2019 06:00 19,1 C 15,6 C 73 % 1017,7 hPa 0,0 l/m 4,8 km/h (1 Bft) O 90 0,025 mm 0,0 UV-I 18 W/m 14,1 C 19,1 C 6,4 km/h (2 Bft) 78,26 %
24.07.2019 05:59 19,1 C 15,6 C 73 % 1017,8 hPa 0,0 l/m 4,8 km/h (1 Bft) O 90 0,000 mm 0,0 UV-I 18 W/m 14,1 C 19,1 C 4,8 km/h (1 Bft) 60,87 %
24.07.2019 05:58 19,1 C 15,6 C 73 % 1017,8 hPa 0,0 l/m 3,2 km/h (1 Bft) O 90 0,000 mm 0,0 UV-I 16 W/m 14,1 C 19,1 C 4,8 km/h (1 Bft) 65,22 %
24.07.2019 05:57 19,1 C 15,6 C 73 % 1017,8 hPa 0,0 l/m 3,2 km/h (1 Bft) O 90 0,000 mm 0,0 UV-I 16 W/m 14,1 C 19,1 C 4,8 km/h (1 Bft) 65,22 %
24.07.2019 05:56 19,1 C 15,6 C 72 % 1017,8 hPa 0,0 l/m 3,2 km/h (1 Bft) O 90 0,000 mm 0,0 UV-I 16 W/m 13,9 C 19,1 C 4,8 km/h (1 Bft) 69,57 %
24.07.2019 05:55 19,1 C 15,6 C 72 % 1017,7 hPa 0,0 l/m 4,8 km/h (1 Bft) O 90 0,000 mm 0,0 UV-I 16 W/m 13,9 C 19,1 C 6,4 km/h (2 Bft) 69,57 %
24.07.2019 05:54 19,1 C 15,6 C 72 % 1017,8 hPa 0,0 l/m 3,2 km/h (1 Bft) O 90 0,000 mm 0,0 UV-I 14 W/m 13,9 C 19,1 C 3,2 km/h (1 Bft) 65,22 %
24.07.2019 05:53 19,1 C 15,6 C 72 % 1017,7 hPa 0,0 l/m 3,2 km/h (1 Bft) O 90 0,000 mm 0,0 UV-I 14 W/m 13,9 C 19,1 C 4,8 km/h (1 Bft) 56,52 %
24.07.2019 05:52 19,1 C 15,6 C 72 % 1017,7 hPa 0,0 l/m 4,8 km/h (1 Bft) O 90 0,000 mm 0,0 UV-I 14 W/m 13,9 C 19,1 C 6,4 km/h (2 Bft) 56,52 %
24.07.2019 05:51 19,0 C 15,0 C 72 % 1017,7 hPa 0,0 l/m 4,8 km/h (1 Bft) O 90 0,000 mm 0,0 UV-I 12 W/m 13,8 C 19,0 C 6,4 km/h (2 Bft) 52,17 %
24.07.2019 05:50 19,0 C 15,0 C 72 % 1017,7 hPa 0,0 l/m 4,8 km/h (1 Bft) O 90 0,000 mm 0,0 UV-I 12 W/m 13,8 C 19,0 C 6,4 km/h (2 Bft) 78,26 %
24.07.2019 05:49 19,0 C 15,0 C 72 % 1017,7 hPa 0,0 l/m 4,8 km/h (1 Bft) O 90 0,000 mm 0,0 UV-I 12 W/m 13,8 C 19,0 C 6,4 km/h (2 Bft) 65,22 %
24.07.2019 05:48 19,0 C 15,0 C 72 % 1017,7 hPa 0,0 l/m 3,2 km/h (1 Bft) O 90 0,000 mm 0,0 UV-I 12 W/m 13,8 C 19,0 C 4,8 km/h (1 Bft) 60,87 %
24.07.2019 05:47 19,0 C 15,0 C 72 % 1017,7 hPa 0,0 l/m 4,8 km/h (1 Bft) O 90 0,000 mm 0,0 UV-I 12 W/m 13,8 C 19,0 C 6,4 km/h (2 Bft) 65,22 %
24.07.2019 05:46 19,0 C 15,0 C 72 % 1017,7 hPa 0,0 l/m 4,8 km/h (1 Bft) O 90 0,000 mm 0,0 UV-I 11 W/m 13,8 C 19,0 C 6,4 km/h (2 Bft) 60,87 %
24.07.2019 05:45 19,0 C 15,0 C 72 % 1017,7 hPa 0,0 l/m 4,8 km/h (1 Bft) O 90 0,000 mm 0,0 UV-I 11 W/m 13,8 C 19,0 C 4,8 km/h (1 Bft) 60,87 %
24.07.2019 05:44 19,0 C 15,0 C 72 % 1017,7 hPa 0,0 l/m 4,8 km/h (1 Bft) O 90 0,000 mm 0,0 UV-I 11 W/m 13,8 C 19,0 C 8,0 km/h (2 Bft) 60,87 %
24.07.2019 05:43 18,9 C 15,0 C 72 % 1017,7 hPa 0,0 l/m 4,8 km/h (1 Bft) O 90 0,000 mm 0,0 UV-I 9 W/m 13,7 C 18,9 C 6,4 km/h (2 Bft) 65,22 %
24.07.2019 05:42 18,9 C 15,0 C 72 % 1017,7 hPa 0,0 l/m 4,8 km/h (1 Bft) O 90 0,000 mm 0,0 UV-I 9 W/m 13,7 C 18,9 C 6,4 km/h (2 Bft) 91,30 %
24.07.2019 05:41 18,9 C 15,0 C 73 % 1017,7 hPa 0,0 l/m 4,8 km/h (1 Bft) O 90 0,000 mm 0,0 UV-I 9 W/m 13,9 C 18,9 C 8,0 km/h (2 Bft) 65,22 %
24.07.2019 05:40 18,9 C 15,0 C 72 % 1017,8 hPa 0,0 l/m 3,2 km/h (1 Bft) O 90 0,000 mm 0,0 UV-I 7 W/m 13,7 C 18,9 C 4,8 km/h (1 Bft) 78,26 %
24.07.2019 05:39 18,9 C 15,0 C 73 % 1017,7 hPa 0,0 l/m 3,2 km/h (1 Bft) O 90 0,000 mm 0,0 UV-I 7 W/m 13,9 C 18,9 C 4,8 km/h (1 Bft) 82,61 %
24.07.2019 05:38 18,9 C 15,0 C 72 % 1017,7 hPa 0,0 l/m 4,8 km/h (1 Bft) O 90 0,000 mm 0,0 UV-I 7 W/m 13,7 C 18,9 C 8,0 km/h (2 Bft) 65,22 %
24.07.2019 05:37 18,9 C 15,0 C 72 % 1017,7 hPa 0,0 l/m 4,8 km/h (1 Bft) O 90 0,000 mm 0,0 UV-I 7 W/m 13,7 C 18,9 C 11,3 km/h (2 Bft) 86,96 %
24.07.2019 05:36 18,9 C 15,0 C 72 % 1017,7 hPa 0,0 l/m 6,4 km/h (2 Bft) O 90 0,000 mm 0,0 UV-I 5 W/m 13,7 C 18,9 C 11,3 km/h (2 Bft) 78,26 %
24.07.2019 05:35 18,9 C 15,0 C 72 % 1017,7 hPa 0,0 l/m 4,8 km/h (1 Bft) O 90 0,000 mm 0,0 UV-I 5 W/m 13,7 C 18,9 C 6,4 km/h (2 Bft) 82,61 %
24.07.2019 05:34 18,9 C 15,0 C 72 % 1017,7 hPa 0,0 l/m 4,8 km/h (1 Bft) O 90 0,000 mm 0,0 UV-I 5 W/m 13,7 C 18,9 C 8,0 km/h (2 Bft) 73,91 %
24.07.2019 05:33 19,0 C 15,0 C 72 % 1017,8 hPa 0,0 l/m 3,2 km/h (1 Bft) O 90 0,000 mm 0,0 UV-I 5 W/m 13,8 C 19,0 C 4,8 km/h (1 Bft) 86,96 %
24.07.2019 05:32 19,0 C 15,0 C 72 % 1017,7 hPa 0,0 l/m 4,8 km/h (1 Bft) O 90 0,000 mm 0,0 UV-I 0 W/m 13,8 C 19,0 C 6,4 km/h (2 Bft) 82,61 %
24.07.2019 05:31 19,1 C 15,0 C 72 % 1017,8 hPa 0,0 l/m 4,8 km/h (1 Bft) O 90 0,000 mm 0,0 UV-I 0 W/m 13,9 C 19,1 C 11,3 km/h (2 Bft) 86,96 %
24.07.2019 05:30 19,1 C 15,0 C 72 % 1017,8 hPa 0,0 l/m 6,4 km/h (2 Bft) O 90 0,000 mm 0,0 UV-I 0 W/m 13,9 C 19,1 C 11,3 km/h (2 Bft) 73,91 %
24.07.2019 05:29 19,2 C 15,0 C 71 % 1017,7 hPa 0,0 l/m 4,8 km/h (1 Bft) O 90 0,000 mm 0,0 UV-I 0 W/m 13,8 C 19,2 C 9,7 km/h (2 Bft) 60,87 %
24.07.2019 05:28 19,2 C 15,6 C 71 % 1017,8 hPa 0,0 l/m 4,8 km/h (1 Bft) O 90 0,000 mm 0,0 UV-I 0 W/m 13,8 C 19,2 C 6,4 km/h (2 Bft) 65,22 %
24.07.2019 05:27 19,3 C 15,6 C 71 % 1017,8 hPa 0,0 l/m 3,2 km/h (1 Bft) O 90 0,000 mm 0,0 UV-I 0 W/m 13,9 C 19,3 C 4,8 km/h (1 Bft) 60,87 %
24.07.2019 05:26 19,3 C 15,6 C 71 % 1017,8 hPa 0,0 l/m 3,2 km/h (1 Bft) O 90 0,000 mm 0,0 UV-I 0 W/m 13,9 C 19,3 C 4,8 km/h (1 Bft) 73,91 %
24.07.2019 05:25 19,3 C 15,6 C 70 % 1017,8 hPa 0,0 l/m 6,4 km/h (2 Bft) O 90 0,000 mm 0,0 UV-I 0 W/m 13,7 C 19,3 C 11,3 km/h (2 Bft) 73,91 %
24.07.2019 05:24 19,4 C 15,6 C 70 % 1017,8 hPa 0,0 l/m 6,4 km/h (2 Bft) O 90 0,000 mm 0,0 UV-I 0 W/m 13,8 C 19,4 C 12,9 km/h (3 Bft) 69,57 %
24.07.2019 05:23 19,4 C 15,6 C 71 % 1017,8 hPa 0,0 l/m 4,8 km/h (1 Bft) O 90 0,000 mm 0,0 UV-I 0 W/m 14,0 C 19,4 C 4,8 km/h (1 Bft) 69,57 %
24.07.2019 05:22 19,5 C 15,6 C 70 % 1017,9 hPa 0,0 l/m 3,2 km/h (1 Bft) O 90 0,000 mm 0,0 UV-I 0 W/m 13,9 C 19,5 C 4,8 km/h (1 Bft) 69,57 %
24.07.2019 05:21 19,6 C 15,6 C 70 % 1017,8 hPa 0,0 l/m 4,8 km/h (1 Bft) O 90 0,000 mm 0,0 UV-I 0 W/m 14,0 C 19,6 C 8,0 km/h (2 Bft) 69,57 %
24.07.2019 05:20 19,6 C 15,6 C 69 % 1017,8 hPa 0,0 l/m 4,8 km/h (1 Bft) O 90 0,000 mm 0,0 UV-I 0 W/m 13,8 C 19,6 C 6,4 km/h (2 Bft) 69,57 %
24.07.2019 05:19 19,7 C 15,6 C 69 % 1017,8 hPa 0,0 l/m 4,8 km/h (1 Bft) O 90 0,000 mm 0,0 UV-I 0 W/m 13,8 C 19,7 C 6,4 km/h (2 Bft) 69,57 %
24.07.2019 05:18 19,7 C 15,6 C 69 % 1017,8 hPa 0,0 l/m 4,8 km/h (1 Bft) O 90 0,000 mm 0,0 UV-I 0 W/m 13,8 C 19,7 C 8,0 km/h (2 Bft) 69,57 %
24.07.2019 05:17 19,8 C 15,6 C 69 % 1017,8 hPa 0,0 l/m 6,4 km/h (2 Bft) O 90 0,000 mm 0,0 UV-I 0 W/m 13,9 C 19,8 C 8,0 km/h (2 Bft) 82,61 %
24.07.2019 05:16 19,8 C 15,6 C 68 % 1017,8 hPa 0,0 l/m 4,8 km/h (1 Bft) O 90 0,000 mm 0,0 UV-I 0 W/m 13,7 C 19,8 C 8,0 km/h (2 Bft) 78,26 %
24.07.2019 05:15 19,9 C 15,6 C 68 % 1017,8 hPa 0,0 l/m 4,8 km/h (1 Bft) O 90 0,000 mm 0,0 UV-I 0 W/m 13,8 C 19,9 C 6,4 km/h (2 Bft) 86,96 %
24.07.2019 05:14 19,9 C 15,6 C 68 % 1017,9 hPa 0,0 l/m 4,8 km/h (1 Bft) O 90 0,000 mm 0,0 UV-I 0 W/m 13,8 C 19,9 C 11,3 km/h (2 Bft) 73,91 %
24.07.2019 05:13 20,1 C 15,6 C 68 % 1017,8 hPa 0,0 l/m 4,8 km/h (1 Bft) O 90 0,000 mm 0,0 UV-I 0 W/m 14,0 C 20,1 C 6,4 km/h (2 Bft) 73,91 %
24.07.2019 05:12 20,1 C 15,6 C 68 % 1017,8 hPa 0,0 l/m 4,8 km/h (1 Bft) O 90 0,000 mm 0,0 UV-I 0 W/m 14,0 C 20,1 C 8,0 km/h (2 Bft) 73,91 %
24.07.2019 05:11 20,2 C 15,6 C 67 % 1017,8 hPa 0,0 l/m 3,2 km/h (1 Bft) O 90 0,000 mm 0,0 UV-I 0 W/m 13,9 C 20,2 C 4,8 km/h (1 Bft) 56,52 %
24.07.2019 05:10 20,2 C 15,6 C 67 % 1017,8 hPa 0,0 l/m 6,4 km/h (2 Bft) O 90 0,000 mm 0,0 UV-I 0 W/m 13,9 C 20,2 C 6,4 km/h (2 Bft) 69,57 %
24.07.2019 05:09 20,3 C 15,6 C 67 % 1017,8 hPa 0,0 l/m 4,8 km/h (1 Bft) O 90 0,000 mm 0,0 UV-I 0 W/m 14,0 C 20,3 C 6,4 km/h (2 Bft) 65,22 %
24.07.2019 05:08 20,3 C 15,6 C 67 % 1017,8 hPa 0,0 l/m 4,8 km/h (1 Bft) O 90 0,000 mm 0,0 UV-I 0 W/m 14,0 C 20,3 C 6,4 km/h (2 Bft) 65,22 %
24.07.2019 05:07 20,3 C 15,6 C 66 % 1017,8 hPa 0,0 l/m 3,2 km/h (1 Bft) O 90 0,000 mm 0,0 UV-I 0 W/m 13,7 C 20,3 C 6,4 km/h (2 Bft) 69,57 %
24.07.2019 05:06 20,3 C 15,6 C 66 % 1017,8 hPa 0,0 l/m 4,8 km/h (1 Bft) O 90 0,000 mm 0,0 UV-I 0 W/m 13,7 C 20,3 C 4,8 km/h (1 Bft) 73,91 %
24.07.2019 05:05 20,5 C 15,6 C 66 % 1017,8 hPa 0,0 l/m 3,2 km/h (1 Bft) O 90 0,000 mm 0,0 UV-I 0 W/m 13,9 C 20,5 C 4,8 km/h (1 Bft) 82,61 %
24.07.2019 05:04 20,6 C 15,6 C 66 % 1017,8 hPa 0,0 l/m 3,2 km/h (1 Bft) O 90 0,000 mm 0,0 UV-I 0 W/m 14,0 C 20,6 C 4,8 km/h (1 Bft) 60,87 %
24.07.2019 05:03 20,6 C 15,6 C 66 % 1017,8 hPa 0,0 l/m 4,8 km/h (1 Bft) O 90 0,000 mm 0,0 UV-I 0 W/m 14,0 C 20,6 C 6,4 km/h (2 Bft) 73,91 %
24.07.2019 05:02 20,7 C 15,6 C 65 % 1017,8 hPa 0,0 l/m 4,8 km/h (1 Bft) O 90 0,000 mm 0,0 UV-I 0 W/m 13,9 C 20,7 C 6,4 km/h (2 Bft) 60,87 %
24.07.2019 05:01 20,7 C 15,6 C 65 % 1017,8 hPa 0,0 l/m 6,4 km/h (2 Bft) O 90 0,000 mm 0,0 UV-I 0 W/m 13,9 C 20,7 C 8,0 km/h (2 Bft) 86,96 %
24.07.2019 05:00 20,7 C 15,6 C 65 % 1017,8 hPa 0,0 l/m 6,4 km/h (2 Bft) O 90 0,051 mm 0,0 UV-I 0 W/m 13,9 C 20,7 C 8,0 km/h (2 Bft) 73,91 %
24.07.2019 04:59 20,8 C 15,6 C 65 % 1017,8 hPa 0,0 l/m 4,8 km/h (1 Bft) O 90 0,000 mm 0,0 UV-I 0 W/m 14,0 C 20,8 C 6,4 km/h (2 Bft) 78,26 %
24.07.2019 04:58 20,7 C 15,6 C 65 % 1017,8 hPa 0,0 l/m 4,8 km/h (1 Bft) O 90 0,000 mm 0,0 UV-I 0 W/m 13,9 C 20,7 C 6,4 km/h (2 Bft) 100,00 %
24.07.2019 04:57 20,7 C 15,6 C 65 % 1017,8 hPa 0,0 l/m 3,2 km/h (1 Bft) O 90 0,000 mm 0,0 UV-I 0 W/m 13,9 C 20,7 C 6,4 km/h (2 Bft) 86,96 %
24.07.2019 04:56 20,7 C 15,6 C 65 % 1017,8 hPa 0,0 l/m 3,2 km/h (1 Bft) O 90 0,000 mm 0,0 UV-I 0 W/m 13,9 C 20,7 C 4,8 km/h (1 Bft) 95,65 %
24.07.2019 04:55 20,7 C 15,6 C 65 % 1017,8 hPa 0,0 l/m 3,2 km/h (1 Bft) O 90 0,000 mm 0,0 UV-I 0 W/m 13,9 C 20,7 C 4,8 km/h (1 Bft) 86,96 %
24.07.2019 04:54 20,6 C 15,6 C 65 % 1017,8 hPa 0,0 l/m 3,2 km/h (1 Bft) O 90 0,000 mm 0,0 UV-I 0 W/m 13,8 C 20,6 C 4,8 km/h (1 Bft) 100,00 %
24.07.2019 04:53 20,5 C 15,6 C 66 % 1017,8 hPa 0,0 l/m 3,2 km/h (1 Bft) O 90 0,000 mm 0,0 UV-I 0 W/m 13,9 C 20,5 C 4,8 km/h (1 Bft) 100,00 %
24.07.2019 04:52 20,4 C 15,6 C 66 % 1017,8 hPa 0,0 l/m 3,2 km/h (1 Bft) O 90 0,000 mm 0,0 UV-I 0 W/m 13,8 C 20,4 C 4,8 km/h (1 Bft) 95,65 %
24.07.2019 04:51 20,4 C 15,6 C 66 % 1017,7 hPa 0,0 l/m 4,8 km/h (1 Bft) O 90 0,000 mm 0,0 UV-I 0 W/m 13,8 C 20,4 C 6,4 km/h (2 Bft) 100,00 %
24.07.2019 04:50 20,3 C 15,6 C 66 % 1017,8 hPa 0,0 l/m 3,2 km/h (1 Bft) O 90 0,000 mm 0,0 UV-I 0 W/m 13,7 C 20,3 C 6,4 km/h (2 Bft) 95,65 %
24.07.2019 04:49 20,3 C 15,6 C 66 % 1017,8 hPa 0,0 l/m 3,2 km/h (1 Bft) O 90 0,000 mm 0,0 UV-I 0 W/m 13,7 C 20,3 C 3,2 km/h (1 Bft) 86,96 %
24.07.2019 04:48 20,3 C 15,6 C 66 % 1017,7 hPa 0,0 l/m 4,8 km/h (1 Bft) O 90 0,000 mm 0,0 UV-I 0 W/m 13,7 C 20,3 C 6,4 km/h (2 Bft) 86,96 %
24.07.2019 04:47 20,3 C 15,6 C 66 % 1017,8 hPa 0,0 l/m 4,8 km/h (1 Bft) O 90 0,000 mm 0,0 UV-I 0 W/m 13,7 C 20,3 C 6,4 km/h (2 Bft) 86,96 %
24.07.2019 04:46 20,3 C 15,6 C 66 % 1017,8 hPa 0,0 l/m 4,8 km/h (1 Bft) O 90 0,000 mm 0,0 UV-I 0 W/m 13,7 C 20,3 C 6,4 km/h (2 Bft) 95,65 %
24.07.2019 04:45 20,3 C 15,6 C 66 % 1017,8 hPa 0,0 l/m 4,8 km/h (1 Bft) O 90 0,000 mm 0,0 UV-I 0 W/m 13,7 C 20,3 C 6,4 km/h (2 Bft) 65,22 %
24.07.2019 04:44 20,4 C 15,6 C 66 % 1017,8 hPa 0,0 l/m 4,8 km/h (1 Bft) O 90 0,000 mm 0,0 UV-I 0 W/m 13,8 C 20,4 C 6,4 km/h (2 Bft) 78,26 %
24.07.2019 04:43 20,4 C 15,6 C 66 % 1017,8 hPa 0,0 l/m 6,4 km/h (2 Bft) O 90 0,000 mm 0,0 UV-I 0 W/m 13,8 C 20,4 C 11,3 km/h (2 Bft) 73,91 %
24.07.2019 04:42 20,4 C 15,6 C 66 % 1017,8 hPa 0,0 l/m 3,2 km/h (1 Bft) O 90 0,000 mm 0,0 UV-I 0 W/m 13,8 C 20,4 C 6,4 km/h (2 Bft) 95,65 %
24.07.2019 04:41 20,5 C 15,6 C 66 % 1017,8 hPa 0,0 l/m 4,8 km/h (1 Bft) O 90 0,000 mm 0,0 UV-I 0 W/m 13,9 C 20,5 C 6,4 km/h (2 Bft) 82,61 %
24.07.2019 04:40 20,4 C 15,6 C 66 % 1017,8 hPa 0,0 l/m 4,8 km/h (1 Bft) O 90 0,000 mm 0,0 UV-I 0 W/m 13,8 C 20,4 C 6,4 km/h (2 Bft) 65,22 %
24.07.2019 04:39 20,5 C 15,6 C 66 % 1017,8 hPa 0,0 l/m 4,8 km/h (1 Bft) O 90 0,000 mm 0,0 UV-I 0 W/m 13,9 C 20,5 C 6,4 km/h (2 Bft) 82,61 %
24.07.2019 04:38 20,5 C 15,6 C 66 % 1017,8 hPa 0,0 l/m 4,8 km/h (1 Bft) O 90 0,000 mm 0,0 UV-I 0 W/m 13,9 C 20,5 C 4,8 km/h (1 Bft) 82,61 %
24.07.2019 04:37 20,5 C 15,6 C 66 % 1017,8 hPa 0,0 l/m 4,8 km/h (1 Bft) O 90 0,000 mm 0,0 UV-I 0 W/m 13,9 C 20,5 C 6,4 km/h (2 Bft) 69,57 %
24.07.2019 04:36 20,5 C 15,6 C 66 % 1017,8 hPa 0,0 l/m 6,4 km/h (2 Bft) O 90 0,000 mm 0,0 UV-I 0 W/m 13,9 C 20,5 C 8,0 km/h (2 Bft) 73,91 %
24.07.2019 04:35 20,5 C 15,6 C 66 % 1017,8 hPa 0,0 l/m 4,8 km/h (1 Bft) O 90 0,000 mm 0,0 UV-I 0 W/m 13,9 C 20,5 C 6,4 km/h (2 Bft) 73,91 %
24.07.2019 04:34 20,5 C 15,6 C 66 % 1017,8 hPa 0,0 l/m 4,8 km/h (1 Bft) O 90 0,000 mm 0,0 UV-I 0 W/m 13,9 C 20,5 C 4,8 km/h (1 Bft) 52,17 %
24.07.2019 04:33 20,5 C 15,6 C 66 % 1017,7 hPa 0,0 l/m 6,4 km/h (2 Bft) O 90 0,000 mm 0,0 UV-I 0 W/m 13,9 C 20,5 C 12,9 km/h (3 Bft) 82,61 %
24.07.2019 04:32 20,4 C 15,6 C 66 % 1017,7 hPa 0,0 l/m 8,0 km/h (2 Bft) O 90 0,000 mm 0,0 UV-I 0 W/m 13,8 C 19,8 C 11,3 km/h (2 Bft) 60,87 %
24.07.2019 04:31 20,4 C 15,6 C 66 % 1017,7 hPa 0,0 l/m 8,0 km/h (2 Bft) O 90 0,000 mm 0,0 UV-I 0 W/m 13,8 C 19,8 C 12,9 km/h (3 Bft) 73,91 %
24.07.2019 04:30 20,4 C 15,6 C 66 % 1017,7 hPa 0,0 l/m 6,4 km/h (2 Bft) O 90 0,000 mm 0,0 UV-I 0 W/m 13,8 C 20,4 C 9,7 km/h (2 Bft) 73,91 %
24.07.2019 04:29 20,5 C 15,6 C 66 % 1017,7 hPa 0,0 l/m 4,8 km/h (1 Bft) O 90 0,000 mm 0,0 UV-I 0 W/m 13,9 C 20,5 C 6,4 km/h (2 Bft) 65,22 %
24.07.2019 04:28 20,5 C 15,6 C 66 % 1017,8 hPa 0,0 l/m 4,8 km/h (1 Bft) O 90 0,000 mm 0,0 UV-I 0 W/m 13,9 C 20,5 C 6,4 km/h (2 Bft) 65,22 %
24.07.2019 04:27 20,5 C 15,6 C 66 % 1017,7 hPa 0,0 l/m 4,8 km/h (1 Bft) O 90 0,000 mm 0,0 UV-I 0 W/m 13,9 C 20,5 C 9,7 km/h (2 Bft) 69,57 %
24.07.2019 04:26 20,6 C 15,6 C 65 % 1017,7 hPa 0,0 l/m 4,8 km/h (1 Bft) O 90 0,000 mm 0,0 UV-I 0 W/m 13,8 C 20,6 C 6,4 km/h (2 Bft) 56,52 %
24.07.2019 04:25 20,6 C 15,6 C 65 % 1017,8 hPa 0,0 l/m 4,8 km/h (1 Bft) O 90 0,000 mm 0,0 UV-I 0 W/m 13,8 C 20,6 C 6,4 km/h (2 Bft) 60,87 %
24.07.2019 04:24 20,7 C 15,6 C 65 % 1017,8 hPa 0,0 l/m 3,2 km/h (1 Bft) O 90 0,000 mm 0,0 UV-I 0 W/m 13,9 C 20,7 C 6,4 km/h (2 Bft) 65,22 %
24.07.2019 04:23 20,7 C 15,6 C 65 % 1017,8 hPa 0,0 l/m 4,8 km/h (1 Bft) O 90 0,000 mm 0,0 UV-I 0 W/m 13,9 C 20,7 C 6,4 km/h (2 Bft) 60,87 %
24.07.2019 04:22 20,8 C 15,6 C 65 % 1017,8 hPa 0,0 l/m 4,8 km/h (1 Bft) O 90 0,000 mm 0,0 UV-I 0 W/m 14,0 C 20,8 C 6,4 km/h (2 Bft) 78,26 %
24.07.2019 04:21 20,8 C 15,6 C 65 % 1017,8 hPa 0,0 l/m 3,2 km/h (1 Bft) O 90 0,000 mm 0,0 UV-I 0 W/m 14,0 C 20,8 C 4,8 km/h (1 Bft) 69,57 %
24.07.2019 04:20 20,8 C 15,6 C 64 % 1017,8 hPa 0,0 l/m 4,8 km/h (1 Bft) O 90 0,000 mm 0,0 UV-I 0 W/m 13,7 C 20,8 C 4,8 km/h (1 Bft) 73,91 %
24.07.2019 04:19 20,8 C 15,6 C 64 % 1017,8 hPa 0,0 l/m 4,8 km/h (1 Bft) O 90 0,000 mm 0,0 UV-I 0 W/m 13,7 C 20,8 C 6,4 km/h (2 Bft) 69,57 %
24.07.2019 04:18 20,9 C 15,6 C 64 % 1017,8 hPa 0,0 l/m 4,8 km/h (1 Bft) O 90 0,000 mm 0,0 UV-I 0 W/m 13,8 C 20,9 C 6,4 km/h (2 Bft) 65,22 %
24.07.2019 04:17 20,9 C 15,6 C 64 % 1017,8 hPa 0,0 l/m 4,8 km/h (1 Bft) O 90 0,000 mm 0,0 UV-I 0 W/m 13,8 C 20,9 C 4,8 km/h (1 Bft) 69,57 %
24.07.2019 04:16 20,9 C 15,6 C 64 % 1017,8 hPa 0,0 l/m 4,8 km/h (1 Bft) O 90 0,000 mm 0,0 UV-I 0 W/m 13,8 C 20,9 C 9,7 km/h (2 Bft) 65,22 %
24.07.2019 04:15 20,9 C 15,6 C 64 % 1017,7 hPa 0,0 l/m 6,4 km/h (2 Bft) O 90 0,000 mm 0,0 UV-I 0 W/m 13,8 C 20,9 C 9,7 km/h (2 Bft) 78,26 %
24.07.2019 04:14 20,9 C 15,6 C 64 % 1017,8 hPa 0,0 l/m 6,4 km/h (2 Bft) O 90 0,000 mm 0,0 UV-I 0 W/m 13,8 C 20,9 C 9,7 km/h (2 Bft) 73,91 %
24.07.2019 04:13 20,9 C 15,6 C 64 % 1017,8 hPa 0,0 l/m 4,8 km/h (1 Bft) O 90 0,000 mm 0,0 UV-I 0 W/m 13,8 C 20,9 C 6,4 km/h (2 Bft) 56,52 %
24.07.2019 04:12 21,0 C 15,6 C 64 % 1017,7 hPa 0,0 l/m 3,2 km/h (1 Bft) O 90 0,000 mm 0,0 UV-I 0 W/m 13,9 C 21,0 C 4,8 km/h (1 Bft) 69,57 %
24.07.2019 04:11 21,1 C 15,6 C 63 % 1017,8 hPa 0,0 l/m 4,8 km/h (1 Bft) O 90 0,000 mm 0,0 UV-I 0 W/m 13,8 C 21,1 C 9,7 km/h (2 Bft) 82,61 %
24.07.2019 04:10 21,1 C 16,1 C 63 % 1017,8 hPa 0,0 l/m 6,4 km/h (2 Bft) O 90 0,000 mm 0,0 UV-I 0 W/m 13,8 C 21,1 C 11,3 km/h (2 Bft) 73,91 %
24.07.2019 04:09 21,1 C 16,1 C 63 % 1017,8 hPa 0,0 l/m 6,4 km/h (2 Bft) O 90 0,000 mm 0,0 UV-I 0 W/m 13,8 C 21,1 C 8,0 km/h (2 Bft) 82,61 %
24.07.2019 04:08 21,2 C 16,1 C 63 % 1017,8 hPa 0,0 l/m 4,8 km/h (1 Bft) O 90 0,000 mm 0,0 UV-I 0 W/m 13,9 C 21,2 C 8,0 km/h (2 Bft) 82,61 %
24.07.2019 04:07 21,3 C 16,1 C 63 % 1017,8 hPa 0,0 l/m 4,8 km/h (1 Bft) O 90 0,000 mm 0,0 UV-I 0 W/m 14,0 C 21,3 C 8,0 km/h (2 Bft) 69,57 %
24.07.2019 04:06 21,3 C 16,1 C 62 % 1017,8 hPa 0,0 l/m 3,2 km/h (1 Bft) O 90 0,000 mm 0,0 UV-I 0 W/m 13,7 C 21,3 C 4,8 km/h (1 Bft) 86,96 %
24.07.2019 04:05 21,4 C 16,1 C 62 % 1017,8 hPa 0,0 l/m 6,4 km/h (2 Bft) O 90 0,000 mm 0,0 UV-I 0 W/m 13,8 C 21,4 C 6,4 km/h (2 Bft) 69,57 %
24.07.2019 04:04 21,5 C 16,1 C 62 % 1017,9 hPa 0,0 l/m 8,0 km/h (2 Bft) O 90 0,000 mm 0,0 UV-I 0 W/m 13,9 C 20,9 C 9,7 km/h (2 Bft) 69,57 %
24.07.2019 04:03 21,5 C 16,1 C 62 % 1017,9 hPa 0,0 l/m 4,8 km/h (1 Bft) O 90 0,000 mm 0,0 UV-I 0 W/m 13,9 C 21,5 C 6,4 km/h (2 Bft) 69,57 %
24.07.2019 04:02 21,6 C 16,1 C 61 % 1017,8 hPa 0,0 l/m 8,0 km/h (2 Bft) O 90 0,000 mm 0,0 UV-I 0 W/m 13,7 C 21,0 C 9,7 km/h (2 Bft) 78,26 %
24.07.2019 04:01 21,6 C 16,1 C 61 % 1017,8 hPa 0,0 l/m 6,4 km/h (2 Bft) O 90 0,000 mm 0,0 UV-I 0 W/m 13,7 C 21,6 C 11,3 km/h (2 Bft) 73,91 %
24.07.2019 04:00 21,6 C 16,1 C 61 % 1017,9 hPa 0,0 l/m 4,8 km/h (1 Bft) O 90 0,051 mm 0,0 UV-I 0 W/m 13,7 C 21,6 C 6,4 km/h (2 Bft) 82,61 %
24.07.2019 03:59 21,6 C 16,1 C 61 % 1017,9 hPa 0,0 l/m 3,2 km/h (1 Bft) O 90 0,000 mm 0,0 UV-I 0 W/m 13,7 C 21,6 C 6,4 km/h (2 Bft) 82,61 %
24.07.2019 03:58 21,7 C 16,1 C 61 % 1017,9 hPa 0,0 l/m 4,8 km/h (1 Bft) O 90 0,000 mm 0,0 UV-I 0 W/m 13,8 C 21,7 C 9,7 km/h (2 Bft) 65,22 %
24.07.2019 03:57 21,6 C 16,1 C 61 % 1017,9 hPa 0,0 l/m 4,8 km/h (1 Bft) O 90 0,000 mm 0,0 UV-I 0 W/m 13,7 C 21,6 C 9,7 km/h (2 Bft) 82,61 %
24.07.2019 03:56 21,6 C 16,1 C 61 % 1017,9 hPa 0,0 l/m 3,2 km/h (1 Bft) O 90 0,000 mm 0,0 UV-I 0 W/m 13,7 C 21,6 C 4,8 km/h (1 Bft) 91,30 %
24.07.2019 03:55 21,6 C 16,1 C 61 % 1017,9 hPa 0,0 l/m 4,8 km/h (1 Bft) O 90 0,000 mm 0,0 UV-I 0 W/m 13,7 C 21,6 C 6,4 km/h (2 Bft) 100,00 %
24.07.2019 03:54 21,5 C 16,1 C 61 % 1017,9 hPa 0,0 l/m 4,8 km/h (1 Bft) O 90 0,000 mm 0,0 UV-I 0 W/m 13,7 C 21,5 C 9,7 km/h (2 Bft) 78,26 %
24.07.2019 03:53 21,5 C 16,1 C 62 % 1017,9 hPa 0,0 l/m 4,8 km/h (1 Bft) O 90 0,000 mm 0,0 UV-I 0 W/m 13,9 C 21,5 C 6,4 km/h (2 Bft) 95,65 %
24.07.2019 03:52 21,5 C 16,1 C 62 % 1017,9 hPa 0,0 l/m 4,8 km/h (1 Bft) O 90 0,000 mm 0,0 UV-I 0 W/m 13,9 C 21,5 C 6,4 km/h (2 Bft) 82,61 %
24.07.2019 03:51 21,6 C 16,1 C 62 % 1017,9 hPa 0,0 l/m 4,8 km/h (1 Bft) O 90 0,000 mm 0,0 UV-I 0 W/m 14,0 C 21,6 C 9,7 km/h (2 Bft) 95,65 %
24.07.2019 03:50 21,6 C 16,1 C 62 % 1017,9 hPa 0,0 l/m 6,4 km/h (2 Bft) O 90 0,000 mm 0,0 UV-I 0 W/m 14,0 C 21,6 C 6,4 km/h (2 Bft) 82,61 %
24.07.2019 03:49 21,7 C 16,1 C 61 % 1017,9 hPa 0,0 l/m 6,4 km/h (2 Bft) O 90 0,000 mm 0,0 UV-I 0 W/m 13,8 C 21,7 C 9,7 km/h (2 Bft) 73,91 %
24.07.2019 03:48 21,7 C 16,1 C 61 % 1017,9 hPa 0,0 l/m 4,8 km/h (1 Bft) O 90 0,000 mm 0,0 UV-I 0 W/m 13,8 C 21,7 C 9,7 km/h (2 Bft) 91,30 %
24.07.2019 03:47 21,8 C 16,1 C 61 % 1018,0 hPa 0,0 l/m 6,4 km/h (2 Bft) O 90 0,000 mm 0,0 UV-I 0 W/m 13,9 C 21,8 C 9,7 km/h (2 Bft) 86,96 %
24.07.2019 03:46 21,8 C 16,1 C 61 % 1017,9 hPa 0,0 l/m 8,0 km/h (2 Bft) O 90 0,000 mm 0,0 UV-I 0 W/m 13,9 C 21,2 C 11,3 km/h (2 Bft) 73,91 %
24.07.2019 03:45 21,8 C 16,1 C 61 % 1017,9 hPa 0,0 l/m 6,4 km/h (2 Bft) O 90 0,000 mm 0,0 UV-I 0 W/m 13,9 C 21,8 C 9,7 km/h (2 Bft) 95,65 %
24.07.2019 03:44 21,9 C 16,1 C 61 % 1018,0 hPa 0,0 l/m 4,8 km/h (1 Bft) O 90 0,000 mm 0,0 UV-I 0 W/m 14,0 C 21,9 C 6,4 km/h (2 Bft) 95,65 %
24.07.2019 03:43 21,9 C 16,1 C 61 % 1018,0 hPa 0,0 l/m 4,8 km/h (1 Bft) O 90 0,000 mm 0,0 UV-I 0 W/m 14,0 C 21,9 C 6,4 km/h (2 Bft) 73,91 %
24.07.2019 03:42 21,9 C 16,1 C 60 % 1018,0 hPa 0,0 l/m 6,4 km/h (2 Bft) O 90 0,000 mm 0,0 UV-I 0 W/m 13,8 C 21,9 C 9,7 km/h (2 Bft) 100,00 %
24.07.2019 03:41 21,9 C 16,1 C 60 % 1018,1 hPa 0,0 l/m 4,8 km/h (1 Bft) O 90 0,000 mm 0,0 UV-I 0 W/m 13,8 C 21,9 C 11,3 km/h (2 Bft) 95,65 %
24.07.2019 03:40 21,9 C 16,1 C 61 % 1018,1 hPa 0,0 l/m 8,0 km/h (2 Bft) O 90 0,000 mm 0,0 UV-I 0 W/m 14,0 C 21,3 C 11,3 km/h (2 Bft) 100,00 %
24.07.2019 03:39 21,9 C 16,1 C 61 % 1018,1 hPa 0,0 l/m 8,0 km/h (2 Bft) O-NO 67 0,000 mm 0,0 UV-I 0 W/m 14,0 C 21,3 C 11,3 km/h (2 Bft) 86,96 %
24.07.2019 03:38 21,9 C 16,1 C 61 % 1018,1 hPa 0,0 l/m 6,4 km/h (2 Bft) O-NO 67 0,000 mm 0,0 UV-I 0 W/m 14,0 C 21,9 C 9,7 km/h (2 Bft) 91,30 %
24.07.2019 03:37 21,9 C 16,1 C 60 % 1018,1 hPa 0,0 l/m 8,0 km/h (2 Bft) O-NO 67 0,000 mm 0,0 UV-I 0 W/m 13,8 C 21,3 C 9,7 km/h (2 Bft) 73,91 %
24.07.2019 03:36 21,9 C 16,1 C 60 % 1018,1 hPa 0,0 l/m 6,4 km/h (2 Bft) O-NO 67 0,000 mm 0,0 UV-I 0 W/m 13,8 C 21,9 C 9,7 km/h (2 Bft) 95,65 %
24.07.2019 03:35 22,0 C 16,1 C 60 % 1018,1 hPa 0,0 l/m 4,8 km/h (1 Bft) O-NO 67 0,000 mm 0,0 UV-I 0 W/m 13,9 C 22,0 C 6,4 km/h (2 Bft) 95,65 %
24.07.2019 03:34 22,0 C 16,1 C 60 % 1018,0 hPa 0,0 l/m 6,4 km/h (2 Bft) O-NO 67 0,000 mm 0,0 UV-I 0 W/m 13,9 C 22,0 C 9,7 km/h (2 Bft) 86,96 %
24.07.2019 03:33 22,0 C 16,1 C 60 % 1018,1 hPa 0,0 l/m 6,4 km/h (2 Bft) O-NO 67 0,000 mm 0,0 UV-I 0 W/m 13,9 C 22,0 C 9,7 km/h (2 Bft) 100,00 %
24.07.2019 03:32 22,0 C 16,1 C 60 % 1018,0 hPa 0,0 l/m 4,8 km/h (1 Bft) O-NO 67 0,000 mm 0,0 UV-I 0 W/m 13,9 C 22,0 C 6,4 km/h (2 Bft) 86,96 %
24.07.2019 03:31 22,0 C 16,1 C 60 % 1018,1 hPa 0,0 l/m 4,8 km/h (1 Bft) O-NO 67 0,000 mm 0,0 UV-I 0 W/m 13,9 C 22,0 C 6,4 km/h (2 Bft) 95,65 %
24.07.2019 03:30 22,0 C 16,1 C 60 % 1018,0 hPa 0,0 l/m 4,8 km/h (1 Bft) O-NO 67 0,000 mm 0,0 UV-I 0 W/m 13,9 C 22,0 C 6,4 km/h (2 Bft) 91,30 %
24.07.2019 03:29 22,0 C 16,1 C 60 % 1018,0 hPa 0,0 l/m 4,8 km/h (1 Bft) O-NO 67 0,000 mm 0,0 UV-I 0 W/m 13,9 C 22,0 C 6,4 km/h (2 Bft) 100,00 %
24.07.2019 03:28 22,0 C 16,1 C 60 % 1018,0 hPa 0,0 l/m 4,8 km/h (1 Bft) O-NO 67 0,000 mm 0,0 UV-I 0 W/m 13,9 C 22,0 C 6,4 km/h (2 Bft) 95,65 %
24.07.2019 03:27 21,9 C 16,1 C 61 % 1018,1 hPa 0,0 l/m 4,8 km/h (1 Bft) O-NO 67 0,000 mm 0,0 UV-I 0 W/m 14,0 C 21,9 C 6,4 km/h (2 Bft) 95,65 %
24.07.2019 03:26 22,0 C 16,1 C 61 % 1018,0 hPa 0,0 l/m 4,8 km/h (1 Bft) O-NO 67 0,000 mm 0,0 UV-I 0 W/m 14,1 C 22,0 C 6,4 km/h (2 Bft) 100,00 %
24.07.2019 03:25 22,0 C 16,1 C 60 % 1018,1 hPa 0,0 l/m 6,4 km/h (2 Bft) O-NO 67 0,000 mm 0,0 UV-I 0 W/m 13,9 C 22,0 C 6,4 km/h (2 Bft) 91,30 %
24.07.2019 03:24 21,9 C 16,1 C 60 % 1018,1 hPa 0,0 l/m 4,8 km/h (1 Bft) O-NO 67 0,000 mm 0,0 UV-I 0 W/m 13,8 C 21,9 C 6,4 km/h (2 Bft) 100,00 %
24.07.2019 03:23 21,9 C 16,1 C 61 % 1018,1 hPa 0,0 l/m 3,2 km/h (1 Bft) O-NO 67 0,000 mm 0,0 UV-I 0 W/m 14,0 C 21,9 C 6,4 km/h (2 Bft) 95,65 %
24.07.2019 03:22 21,9 C 16,1 C 61 % 1018,2 hPa 0,0 l/m 4,8 km/h (1 Bft) O-NO 67 0,000 mm 0,0 UV-I 0 W/m 14,0 C 21,9 C 6,4 km/h (2 Bft) 95,65 %
24.07.2019 03:21 21,9 C 16,1 C 61 % 1018,2 hPa 0,0 l/m 6,4 km/h (2 Bft) O-NO 67 0,000 mm 0,0 UV-I 0 W/m 14,0 C 21,9 C 6,4 km/h (2 Bft) 95,65 %
24.07.2019 03:20 22,0 C 16,1 C 61 % 1018,1 hPa 0,0 l/m 6,4 km/h (2 Bft) O-NO 67 0,000 mm 0,0 UV-I 0 W/m 14,1 C 22,0 C 6,4 km/h (2 Bft) 95,65 %
24.07.2019 03:19 22,0 C 16,1 C 61 % 1018,2 hPa 0,0 l/m 6,4 km/h (2 Bft) O-NO 67 0,000 mm 0,0 UV-I 0 W/m 14,1 C 22,0 C 9,7 km/h (2 Bft) 100,00 %
24.07.2019 03:18 22,1 C 16,1 C 61 % 1018,2 hPa 0,0 l/m 6,4 km/h (2 Bft) O-NO 67 0,000 mm 0,0 UV-I 0 W/m 14,2 C 22,1 C 9,7 km/h (2 Bft) 91,30 %
24.07.2019 03:17 22,1 C 16,1 C 61 % 1018,2 hPa 0,0 l/m 6,4 km/h (2 Bft) O-NO 67 0,000 mm 0,0 UV-I 0 W/m 14,2 C 22,1 C 6,4 km/h (2 Bft) 100,00 %
24.07.2019 03:16 22,1 C 16,1 C 61 % 1018,2 hPa 0,0 l/m 4,8 km/h (1 Bft) O-NO 67 0,000 mm 0,0 UV-I 0 W/m 14,2 C 22,1 C 6,4 km/h (2 Bft) 95,65 %
24.07.2019 03:15 22,1 C 16,1 C 60 % 1018,2 hPa 0,0 l/m 4,8 km/h (1 Bft) O-NO 67 0,000 mm 0,0 UV-I 0 W/m 14,0 C 22,1 C 6,4 km/h (2 Bft) 95,65 %
24.07.2019 03:14 22,1 C 16,1 C 60 % 1018,2 hPa 0,0 l/m 4,8 km/h (1 Bft) O-NO 67 0,000 mm 0,0 UV-I 0 W/m 14,0 C 22,1 C 6,4 km/h (2 Bft) 95,65 %
24.07.2019 03:13 22,1 C 16,1 C 61 % 1018,2 hPa 0,0 l/m 4,8 km/h (1 Bft) O-NO 67 0,000 mm 0,0 UV-I 0 W/m 14,2 C 22,1 C 4,8 km/h (1 Bft) 95,65 %
24.07.2019 03:12 22,1 C 16,1 C 61 % 1018,2 hPa 0,0 l/m 4,8 km/h (1 Bft) O-NO 67 0,000 mm 0,0 UV-I 0 W/m 14,2 C 22,1 C 6,4 km/h (2 Bft) 95,65 %
24.07.2019 03:11 22,1 C 16,1 C 60 % 1018,2 hPa 0,0 l/m 4,8 km/h (1 Bft) O-NO 67 0,000 mm 0,0 UV-I 0 W/m 14,0 C 22,1 C 6,4 km/h (2 Bft) 91,30 %
24.07.2019 03:10 22,1 C 16,1 C 61 % 1018,2 hPa 0,0 l/m 4,8 km/h (1 Bft) O-NO 67 0,000 mm 0,0 UV-I 0 W/m 14,2 C 22,1 C 6,4 km/h (2 Bft) 100,00 %
24.07.2019 03:09 22,0 C 16,1 C 61 % 1018,2 hPa 0,0 l/m 4,8 km/h (1 Bft) O-NO 67 0,000 mm 0,0 UV-I 0 W/m 14,1 C 22,0 C 6,4 km/h (2 Bft) 95,65 %
24.07.2019 03:08 22,0 C 16,1 C 61 % 1018,2 hPa 0,0 l/m 4,8 km/h (1 Bft) O-NO 67 0,000 mm 0,0 UV-I 0 W/m 14,1 C 22,0 C 6,4 km/h (2 Bft) 100,00 %
24.07.2019 03:07 21,9 C 16,1 C 61 % 1018,2 hPa 0,0 l/m 4,8 km/h (1 Bft) O-NO 67 0,000 mm 0,0 UV-I 0 W/m 14,0 C 21,9 C 6,4 km/h (2 Bft) 91,30 %
24.07.2019 03:06 21,9 C 16,1 C 61 % 1018,2 hPa 0,0 l/m 4,8 km/h (1 Bft) O-NO 67 0,000 mm 0,0 UV-I 0 W/m 14,0 C 21,9 C 6,4 km/h (2 Bft) 100,00 %
24.07.2019 03:05 22,0 C 16,1 C 61 % 1018,2 hPa 0,0 l/m 4,8 km/h (1 Bft) O-NO 67 0,000 mm 0,0 UV-I 0 W/m 14,1 C 22,0 C 9,7 km/h (2 Bft) 91,30 %
24.07.2019 03:04 22,0 C 16,1 C 61 % 1018,2 hPa 0,0 l/m 6,4 km/h (2 Bft) O-NO 67 0,000 mm 0,0 UV-I 0 W/m 14,1 C 22,0 C 9,7 km/h (2 Bft) 95,65 %
24.07.2019 03:03 22,0 C 16,1 C 61 % 1018,3 hPa 0,0 l/m 4,8 km/h (1 Bft) O-NO 67 0,000 mm 0,0 UV-I 0 W/m 14,1 C 22,0 C 6,4 km/h (2 Bft) 95,65 %
24.07.2019 03:02 22,0 C 16,1 C 61 % 1018,2 hPa 0,0 l/m 4,8 km/h (1 Bft) O-NO 67 0,000 mm 0,0 UV-I 0 W/m 14,1 C 22,0 C 6,4 km/h (2 Bft) 95,65 %
24.07.2019 03:01 22,0 C 16,1 C 61 % 1018,2 hPa 0,0 l/m 4,8 km/h (1 Bft) O-NO 67 0,000 mm 0,0 UV-I 0 W/m 14,1 C 22,0 C 6,4 km/h (2 Bft) 95,65 %
24.07.2019 03:00 21,9 C 16,1 C 61 % 1018,3 hPa 0,0 l/m 4,8 km/h (1 Bft) O-NO 67 0,051 mm 0,0 UV-I 0 W/m 14,0 C 21,9 C 4,8 km/h (1 Bft) 95,65 %
24.07.2019 02:59 21,9 C 16,1 C 61 % 1018,2 hPa 0,0 l/m 4,8 km/h (1 Bft) O-NO 67 0,000 mm 0,0 UV-I 0 W/m 14,0 C 21,9 C 6,4 km/h (2 Bft) 95,65 %
24.07.2019 02:58 21,8 C 16,1 C 61 % 1018,3 hPa 0,0 l/m 4,8 km/h (1 Bft) O-NO 67 0,000 mm 0,0 UV-I 0 W/m 13,9 C 21,8 C 6,4 km/h (2 Bft) 95,65 %
24.07.2019 02:57 21,8 C 16,1 C 61 % 1018,3 hPa 0,0 l/m 4,8 km/h (1 Bft) O-NO 67 0,000 mm 0,0 UV-I 0 W/m 13,9 C 21,8 C 6,4 km/h (2 Bft) 91,30 %
24.07.2019 02:56 21,8 C 16,1 C 61 % 1018,3 hPa 0,0 l/m 3,2 km/h (1 Bft) O-NO 67 0,000 mm 0,0 UV-I 0 W/m 13,9 C 21,8 C 4,8 km/h (1 Bft) 91,30 %
24.07.2019 02:55 21,8 C 16,1 C 61 % 1018,3 hPa 0,0 l/m 4,8 km/h (1 Bft) O-NO 67 0,000 mm 0,0 UV-I 0 W/m 13,9 C 21,8 C 6,4 km/h (2 Bft) 100,00 %
24.07.2019 02:54 21,8 C 16,1 C 61 % 1018,3 hPa 0,0 l/m 4,8 km/h (1 Bft) O-NO 67 0,000 mm 0,0 UV-I 0 W/m 13,9 C 21,8 C 6,4 km/h (2 Bft) 100,00 %
24.07.2019 02:53 21,8 C 16,1 C 61 % 1018,3 hPa 0,0 l/m 6,4 km/h (2 Bft) O-NO 67 0,000 mm 0,0 UV-I 0 W/m 13,9 C 21,8 C 6,4 km/h (2 Bft) 100,00 %
24.07.2019 02:52 21,8 C 16,1 C 62 % 1018,3 hPa 0,0 l/m 4,8 km/h (1 Bft) O-NO 67 0,000 mm 0,0 UV-I 0 W/m 14,2 C 21,8 C 6,4 km/h (2 Bft) 95,65 %
24.07.2019 02:51 21,8 C 16,1 C 61 % 1018,3 hPa 0,0 l/m 4,8 km/h (1 Bft) O-NO 67 0,000 mm 0,0 UV-I 0 W/m 13,9 C 21,8 C 6,4 km/h (2 Bft) 95,65 %
24.07.2019 02:50 21,9 C 16,1 C 61 % 1018,3 hPa 0,0 l/m 6,4 km/h (2 Bft) O-NO 67 0,000 mm 0,0 UV-I 0 W/m 14,0 C 21,9 C 9,7 km/h (2 Bft) 95,65 %
24.07.2019 02:49 21,9 C 16,1 C 61 % 1018,3 hPa 0,0 l/m 4,8 km/h (1 Bft) O-NO 67 0,000 mm 0,0 UV-I 0 W/m 14,0 C 21,9 C 6,4 km/h (2 Bft) 91,30 %
24.07.2019 02:48 22,0 C 16,1 C 61 % 1018,5 hPa 0,0 l/m 6,4 km/h (2 Bft) O-NO 67 0,000 mm 0,0 UV-I 0 W/m 14,1 C 22,0 C 9,7 km/h (2 Bft) 95,65 %
24.07.2019 02:47 22,1 C 16,1 C 61 % 1018,4 hPa 0,0 l/m 6,4 km/h (2 Bft) O-NO 67 0,000 mm 0,0 UV-I 0 W/m 14,2 C 22,1 C 9,7 km/h (2 Bft) 100,00 %
24.07.2019 02:46 22,1 C 16,1 C 61 % 1018,5 hPa 0,0 l/m 6,4 km/h (2 Bft) O-NO 67 0,000 mm 0,0 UV-I 0 W/m 14,2 C 22,1 C 6,4 km/h (2 Bft) 95,65 %
24.07.2019 02:45 22,1 C 16,1 C 60 % 1018,5 hPa 0,0 l/m 4,8 km/h (1 Bft) O-NO 67 0,000 mm 0,0 UV-I 0 W/m 14,0 C 22,1 C 6,4 km/h (2 Bft) 78,26 %
24.07.2019 02:44 22,1 C 16,1 C 60 % 1018,5 hPa 0,0 l/m 6,4 km/h (2 Bft) O-NO 67 0,000 mm 0,0 UV-I 0 W/m 14,0 C 22,1 C 6,4 km/h (2 Bft) 100,00 %
24.07.2019 02:43 22,1 C 16,1 C 60 % 1018,4 hPa 0,0 l/m 4,8 km/h (1 Bft) O-NO 67 0,000 mm 0,0 UV-I 0 W/m 14,0 C 22,1 C 6,4 km/h (2 Bft) 82,61 %
24.07.2019 02:42 22,1 C 16,1 C 60 % 1018,5 hPa 0,0 l/m 3,2 km/h (1 Bft) O-NO 67 0,000 mm 0,0 UV-I 0 W/m 14,0 C 22,1 C 4,8 km/h (1 Bft) 78,26 %
24.07.2019 02:41 22,1 C 16,1 C 61 % 1018,4 hPa 0,0 l/m 6,4 km/h (2 Bft) O-NO 67 0,000 mm 0,0 UV-I 0 W/m 14,2 C 22,1 C 6,4 km/h (2 Bft) 86,96 %
24.07.2019 02:40 22,1 C 16,1 C 61 % 1018,5 hPa 0,0 l/m 6,4 km/h (2 Bft) O-NO 67 0,000 mm 0,0 UV-I 0 W/m 14,2 C 22,1 C 9,7 km/h (2 Bft) 100,00 %
24.07.2019 02:39 22,1 C 16,1 C 61 % 1018,5 hPa 0,0 l/m 4,8 km/h (1 Bft) O-NO 67 0,000 mm 0,0 UV-I 0 W/m 14,2 C 22,1 C 6,4 km/h (2 Bft) 95,65 %
24.07.2019 02:38 22,1 C 16,1 C 61 % 1018,5 hPa 0,0 l/m 1,6 km/h (1 Bft) O-NO 67 0,000 mm 0,0 UV-I 0 W/m 14,2 C 22,1 C 3,2 km/h (1 Bft) 91,30 %
24.07.2019 02:37 22,1 C 16,1 C 61 % 1018,5 hPa 0,0 l/m 3,2 km/h (1 Bft) O-NO 67 0,000 mm 0,0 UV-I 0 W/m 14,2 C 22,1 C 4,8 km/h (1 Bft) 95,65 %
24.07.2019 02:36 22,1 C 16,1 C 61 % 1018,4 hPa 0,0 l/m 3,2 km/h (1 Bft) O-NO 67 0,000 mm 0,0 UV-I 0 W/m 14,2 C 22,1 C 4,8 km/h (1 Bft) 86,96 %
24.07.2019 02:35 22,1 C 16,1 C 61 % 1018,5 hPa 0,0 l/m 3,2 km/h (1 Bft) O-NO 67 0,000 mm 0,0 UV-I 0 W/m 14,2 C 22,1 C 4,8 km/h (1 Bft) 86,96 %
24.07.2019 02:34 22,1 C 16,1 C 61 % 1018,5 hPa 0,0 l/m 4,8 km/h (1 Bft) O-NO 67 0,000 mm 0,0 UV-I 0 W/m 14,2 C 22,1 C 6,4 km/h (2 Bft) 95,65 %
24.07.2019 02:33 22,1 C 16,1 C 61 % 1018,5 hPa 0,0 l/m 4,8 km/h (1 Bft) O-NO 67 0,000 mm 0,0 UV-I 0 W/m 14,2 C 22,1 C 4,8 km/h (1 Bft) 95,65 %
24.07.2019 02:32 22,1 C 16,1 C 61 % 1018,5 hPa 0,0 l/m 4,8 km/h (1 Bft) O-NO 67 0,000 mm 0,0 UV-I 0 W/m 14,2 C 22,1 C 4,8 km/h (1 Bft) 95,65 %
24.07.2019 02:31 22,1 C 16,1 C 61 % 1018,5 hPa 0,0 l/m 3,2 km/h (1 Bft) O-NO 67 0,000 mm 0,0 UV-I 0 W/m 14,2 C 22,1 C 4,8 km/h (1 Bft) 86,96 %
24.07.2019 02:30 22,1 C 16,1 C 61 % 1018,5 hPa 0,0 l/m 4,8 km/h (1 Bft) O-NO 67 0,000 mm 0,0 UV-I 0 W/m 14,2 C 22,1 C 6,4 km/h (2 Bft) 91,30 %
24.07.2019 02:29 22,2 C 16,1 C 61 % 1018,5 hPa 0,0 l/m 4,8 km/h (1 Bft) O-NO 67 0,000 mm 0,0 UV-I 0 W/m 14,3 C 22,2 C 6,4 km/h (2 Bft) 82,61 %
24.07.2019 02:28 22,2 C 16,1 C 60 % 1018,5 hPa 0,0 l/m 3,2 km/h (1 Bft) O-NO 67 0,000 mm 0,0 UV-I 0 W/m 14,1 C 22,2 C 4,8 km/h (1 Bft) 100,00 %
24.07.2019 02:27 22,2 C 16,1 C 60 % 1018,5 hPa 0,0 l/m 4,8 km/h (1 Bft) O-NO 67 0,000 mm 0,0 UV-I 0 W/m 14,1 C 22,2 C 4,8 km/h (1 Bft) 82,61 %
24.07.2019 02:26 22,2 C 16,1 C 60 % 1018,5 hPa 0,0 l/m 4,8 km/h (1 Bft) O-NO 67 0,000 mm 0,0 UV-I 0 W/m 14,1 C 22,2 C 6,4 km/h (2 Bft) 95,65 %
24.07.2019 02:25 22,3 C 16,1 C 60 % 1018,5 hPa 0,0 l/m 4,8 km/h (1 Bft) O-NO 67 0,000 mm 0,0 UV-I 0 W/m 14,2 C 22,3 C 6,4 km/h (2 Bft) 95,65 %
24.07.2019 02:24 22,3 C 16,1 C 60 % 1018,5 hPa 0,0 l/m 3,2 km/h (1 Bft) O-NO 67 0,000 mm 0,0 UV-I 0 W/m 14,2 C 22,3 C 6,4 km/h (2 Bft) 100,00 %
24.07.2019 02:23 22,3 C 16,1 C 60 % 1018,6 hPa 0,0 l/m 3,2 km/h (1 Bft) O-NO 67 0,000 mm 0,0 UV-I 0 W/m 14,2 C 22,3 C 4,8 km/h (1 Bft) 100,00 %
24.07.2019 02:22 22,3 C 16,1 C 60 % 1018,5 hPa 0,0 l/m 3,2 km/h (1 Bft) O-NO 67 0,000 mm 0,0 UV-I 0 W/m 14,2 C 22,3 C 6,4 km/h (2 Bft) 95,65 %
24.07.2019 02:21 22,3 C 16,1 C 60 % 1018,5 hPa 0,0 l/m 4,8 km/h (1 Bft) O-NO 67 0,000 mm 0,0 UV-I 0 W/m 14,2 C 22,3 C 4,8 km/h (1 Bft) 100,00 %
24.07.2019 02:20 22,3 C 16,1 C 60 % 1018,6 hPa 0,0 l/m 3,2 km/h (1 Bft) O-NO 67 0,000 mm 0,0 UV-I 0 W/m 14,2 C 22,3 C 4,8 km/h (1 Bft) 100,00 %
24.07.2019 02:19 22,3 C 16,1 C 60 % 1018,5 hPa 0,0 l/m 3,2 km/h (1 Bft) O-NO 67 0,000 mm 0,0 UV-I 0 W/m 14,2 C 22,3 C 4,8 km/h (1 Bft) 100,00 %
24.07.2019 02:18 22,3 C 16,1 C 60 % 1018,6 hPa 0,0 l/m 4,8 km/h (1 Bft) O-NO 67 0,000 mm 0,0 UV-I 0 W/m 14,2 C 22,3 C 4,8 km/h (1 Bft) 100,00 %
24.07.2019 02:17 22,3 C 16,1 C 60 % 1018,5 hPa 0,0 l/m 4,8 km/h (1 Bft) O-NO 67 0,000 mm 0,0 UV-I 0 W/m 14,2 C 22,3 C 4,8 km/h (1 Bft) 95,65 %
24.07.2019 02:16 22,4 C 16,1 C 60 % 1018,5 hPa 0,0 l/m 4,8 km/h (1 Bft) O-NO 67 0,000 mm 0,0 UV-I 0 W/m 14,2 C 22,4 C 6,4 km/h (2 Bft) 86,96 %
24.07.2019 02:15 22,4 C 16,1 C 59 % 1018,5 hPa 0,0 l/m 4,8 km/h (1 Bft) O-NO 67 0,000 mm 0,0 UV-I 0 W/m 14,0 C 22,4 C 6,4 km/h (2 Bft) 82,61 %
24.07.2019 02:14 22,5 C 16,1 C 59 % 1018,5 hPa 0,0 l/m 4,8 km/h (1 Bft) O-NO 67 0,000 mm 0,0 UV-I 0 W/m 14,1 C 22,5 C 6,4 km/h (2 Bft) 86,96 %
24.07.2019 02:13 22,6 C 16,1 C 59 % 1018,7 hPa 0,0 l/m 4,8 km/h (1 Bft) O-NO 67 0,000 mm 0,0 UV-I 0 W/m 14,2 C 22,6 C 6,4 km/h (2 Bft) 86,96 %
24.07.2019 02:12 22,6 C 16,1 C 59 % 1018,6 hPa 0,0 l/m 3,2 km/h (1 Bft) O-NO 67 0,000 mm 0,0 UV-I 0 W/m 14,2 C 22,6 C 4,8 km/h (1 Bft) 91,30 %
24.07.2019 02:11 22,7 C 16,1 C 59 % 1018,6 hPa 0,0 l/m 3,2 km/h (1 Bft) O-NO 67 0,000 mm 0,0 UV-I 0 W/m 14,3 C 22,7 C 6,4 km/h (2 Bft) 86,96 %
24.07.2019 02:10 22,7 C 16,1 C 59 % 1018,7 hPa 0,0 l/m 3,2 km/h (1 Bft) O-NO 67 0,000 mm 0,0 UV-I 0 W/m 14,3 C 22,7 C 4,8 km/h (1 Bft) 86,96 %
24.07.2019 02:09 22,8 C 16,1 C 58 % 1018,7 hPa 0,0 l/m 3,2 km/h (1 Bft) O-NO 67 0,000 mm 0,0 UV-I 0 W/m 14,1 C 22,8 C 4,8 km/h (1 Bft) 91,30 %
24.07.2019 02:08 22,8 C 16,1 C 58 % 1018,7 hPa 0,0 l/m 4,8 km/h (1 Bft) O-NO 67 0,000 mm 0,0 UV-I 0 W/m 14,1 C 22,8 C 6,4 km/h (2 Bft) 91,30 %
24.07.2019 02:07 22,8 C 16,1 C 58 % 1018,8 hPa 0,0 l/m 4,8 km/h (1 Bft) O-NO 67 0,000 mm 0,0 UV-I 0 W/m 14,1 C 22,8 C 6,4 km/h (2 Bft) 95,65 %
24.07.2019 02:06 22,8 C 16,1 C 58 % 1018,8 hPa 0,0 l/m 4,8 km/h (1 Bft) O-NO 67 0,000 mm 0,0 UV-I 0 W/m 14,1 C 22,8 C 6,4 km/h (2 Bft) 86,96 %
24.07.2019 02:05 22,8 C 16,1 C 58 % 1018,8 hPa 0,0 l/m 4,8 km/h (1 Bft) O-NO 67 0,000 mm 0,0 UV-I 0 W/m 14,1 C 22,8 C 6,4 km/h (2 Bft) 86,96 %
24.07.2019 02:04 22,8 C 16,1 C 58 % 1018,8 hPa 0,0 l/m 4,8 km/h (1 Bft) O-NO 67 0,000 mm 0,0 UV-I 0 W/m 14,1 C 22,8 C 4,8 km/h (1 Bft) 78,26 %
24.07.2019 02:03 22,8 C 16,1 C 58 % 1018,8 hPa 0,0 l/m 1,6 km/h (1 Bft) O-NO 67 0,000 mm 0,0 UV-I 0 W/m 14,1 C 22,8 C 6,4 km/h (2 Bft) 86,96 %
24.07.2019 02:02 22,7 C 16,1 C 58 % 1018,8 hPa 0,0 l/m 3,2 km/h (1 Bft) O-NO 67 0,000 mm 0,0 UV-I 0 W/m 14,0 C 22,7 C 6,4 km/h (2 Bft) 91,30 %
24.07.2019 02:01 22,8 C 16,1 C 58 % 1018,8 hPa 0,0 l/m 3,2 km/h (1 Bft) O-NO 67 0,000 mm 0,0 UV-I 0 W/m 14,1 C 22,8 C 6,4 km/h (2 Bft) 86,96 %
24.07.2019 02:00 22,8 C 16,1 C 58 % 1018,8 hPa 0,0 l/m 4,8 km/h (1 Bft) O-NO 67 0,051 mm 0,0 UV-I 0 W/m 14,1 C 22,8 C 6,4 km/h (2 Bft) 69,57 %
24.07.2019 01:59 22,8 C 16,1 C 58 % 1018,8 hPa 0,0 l/m 3,2 km/h (1 Bft) O-NO 67 0,000 mm 0,0 UV-I 0 W/m 14,1 C 22,8 C 4,8 km/h (1 Bft) 73,91 %
24.07.2019 01:58 22,8 C 16,1 C 58 % 1018,8 hPa 0,0 l/m 4,8 km/h (1 Bft) O-NO 67 0,000 mm 0,0 UV-I 0 W/m 14,1 C 22,8 C 6,4 km/h (2 Bft) 91,30 %
24.07.2019 01:57 22,8 C 16,1 C 58 % 1018,8 hPa 0,0 l/m 4,8 km/h (1 Bft) O-NO 67 0,000 mm 0,0 UV-I 0 W/m 14,1 C 22,8 C 4,8 km/h (1 Bft) 86,96 %
24.07.2019 01:56 22,8 C 16,1 C 58 % 1018,9 hPa 0,0 l/m 4,8 km/h (1 Bft) O-NO 67 0,000 mm 0,0 UV-I 0 W/m 14,1 C 22,8 C 4,8 km/h (1 Bft) 73,91 %
24.07.2019 01:55 22,8 C 16,1 C 58 % 1018,8 hPa 0,0 l/m 3,2 km/h (1 Bft) O-NO 67 0,000 mm 0,0 UV-I 0 W/m 14,1 C 22,8 C 4,8 km/h (1 Bft) 86,96 %
24.07.2019 01:54 22,8 C 16,1 C 58 % 1018,8 hPa 0,0 l/m 3,2 km/h (1 Bft) O-NO 67 0,000 mm 0,0 UV-I 0 W/m 14,1 C 22,8 C 4,8 km/h (1 Bft) 91,30 %
24.07.2019 01:53 22,8 C 16,1 C 58 % 1018,8 hPa 0,0 l/m 4,8 km/h (1 Bft) O-NO 67 0,000 mm 0,0 UV-I 0 W/m 14,1 C 22,8 C 6,4 km/h (2 Bft) 95,65 %
24.07.2019 01:52 22,8 C 16,1 C 58 % 1018,9 hPa 0,0 l/m 3,2 km/h (1 Bft) O-NO 67 0,000 mm 0,0 UV-I 0 W/m 14,1 C 22,8 C 4,8 km/h (1 Bft) 78,26 %
24.07.2019 01:51 22,8 C 16,1 C 58 % 1018,8 hPa 0,0 l/m 3,2 km/h (1 Bft) O-NO 67 0,000 mm 0,0 UV-I 0 W/m 14,1 C 22,8 C 6,4 km/h (2 Bft) 82,61 %
24.07.2019 01:50 22,8 C 16,1 C 58 % 1018,9 hPa 0,0 l/m 3,2 km/h (1 Bft) O-NO 67 0,000 mm 0,0 UV-I 0 W/m 14,1 C 22,8 C 6,4 km/h (2 Bft) 78,26 %
24.07.2019 01:49 22,8 C 16,1 C 58 % 1018,9 hPa 0,0 l/m 4,8 km/h (1 Bft) O-NO 67 0,000 mm 0,0 UV-I 0 W/m 14,1 C 22,8 C 6,4 km/h (2 Bft) 73,91 %
24.07.2019 01:48 22,8 C 16,1 C 57 % 1018,8 hPa 0,0 l/m 4,8 km/h (1 Bft) O-NO 67 0,000 mm 0,0 UV-I 0 W/m 13,8 C 22,8 C 6,4 km/h (2 Bft) 78,26 %
24.07.2019 01:47 22,9 C 16,1 C 58 % 1018,9 hPa 0,0 l/m 4,8 km/h (1 Bft) O-NO 67 0,000 mm 0,0 UV-I 0 W/m 14,2 C 22,9 C 6,4 km/h (2 Bft) 56,52 %
24.07.2019 01:46 23,0 C 16,1 C 58 % 1018,9 hPa 0,0 l/m 3,2 km/h (1 Bft) O-NO 67 0,000 mm 0,0 UV-I 0 W/m 14,3 C 23,0 C 4,8 km/h (1 Bft) 73,91 %
24.07.2019 01:45 23,0 C 16,1 C 57 % 1018,9 hPa 0,0 l/m 6,4 km/h (2 Bft) O-NO 67 0,000 mm 0,0 UV-I 0 W/m 14,0 C 23,0 C 9,7 km/h (2 Bft) 65,22 %
24.07.2019 01:44 23,1 C 16,1 C 57 % 1018,9 hPa 0,0 l/m 4,8 km/h (1 Bft) O-NO 67 0,000 mm 0,0 UV-I 0 W/m 14,1 C 23,1 C 6,4 km/h (2 Bft) 69,57 %
24.07.2019 01:43 23,1 C 16,1 C 57 % 1018,9 hPa 0,0 l/m 4,8 km/h (1 Bft) O-NO 67 0,000 mm 0,0 UV-I 0 W/m 14,1 C 23,1 C 4,8 km/h (1 Bft) 78,26 %
24.07.2019 01:42 23,1 C 16,1 C 57 % 1019,0 hPa 0,0 l/m 4,8 km/h (1 Bft) O-NO 67 0,000 mm 0,0 UV-I 0 W/m 14,1 C 23,1 C 6,4 km/h (2 Bft) 100,00 %
24.07.2019 01:41 23,1 C 16,1 C 57 % 1018,9 hPa 0,0 l/m 3,2 km/h (1 Bft) O-NO 67 0,000 mm 0,0 UV-I 0 W/m 14,1 C 23,1 C 4,8 km/h (1 Bft) 78,26 %
24.07.2019 01:40 23,2 C 16,1 C 57 % 1018,9 hPa 0,0 l/m 4,8 km/h (1 Bft) O-NO 67 0,000 mm 0,0 UV-I 0 W/m 14,2 C 23,2 C 6,4 km/h (2 Bft) 100,00 %
24.07.2019 01:39 23,2 C 16,1 C 56 % 1019,0 hPa 0,0 l/m 4,8 km/h (1 Bft) O-NO 67 0,000 mm 0,0 UV-I 0 W/m 13,9 C 23,2 C 4,8 km/h (1 Bft) 91,30 %
24.07.2019 01:38 23,2 C 16,1 C 56 % 1018,9 hPa 0,0 l/m 3,2 km/h (1 Bft) O-NO 67 0,000 mm 0,0 UV-I 0 W/m 13,9 C 23,2 C 4,8 km/h (1 Bft) 100,00 %
24.07.2019 01:37 23,2 C 16,1 C 56 % 1018,9 hPa 0,0 l/m 3,2 km/h (1 Bft) O-NO 67 0,000 mm 0,0 UV-I 0 W/m 13,9 C 23,2 C 3,2 km/h (1 Bft) 95,65 %
24.07.2019 01:36 23,2 C 16,1 C 56 % 1018,9 hPa 0,0 l/m 1,6 km/h (1 Bft) O-NO 67 0,000 mm 0,0 UV-I 0 W/m 13,9 C 23,2 C 3,2 km/h (1 Bft) 100,00 %
24.07.2019 01:35 23,2 C 16,1 C 56 % 1019,0 hPa 0,0 l/m 3,2 km/h (1 Bft) O-NO 67 0,000 mm 0,0 UV-I 0 W/m 13,9 C 23,2 C 4,8 km/h (1 Bft) 95,65 %
24.07.2019 01:34 23,2 C 16,1 C 56 % 1018,9 hPa 0,0 l/m 3,2 km/h (1 Bft) O-NO 67 0,000 mm 0,0 UV-I 0 W/m 13,9 C 23,2 C 4,8 km/h (1 Bft) 95,65 %
24.07.2019 01:33 23,2 C 16,1 C 56 % 1019,0 hPa 0,0 l/m 3,2 km/h (1 Bft) O-NO 67 0,000 mm 0,0 UV-I 0 W/m 13,9 C 23,2 C 4,8 km/h (1 Bft) 95,65 %
24.07.2019 01:32 23,2 C 16,1 C 56 % 1018,9 hPa 0,0 l/m 4,8 km/h (1 Bft) O-NO 67 0,000 mm 0,0 UV-I 0 W/m 13,9 C 23,2 C 6,4 km/h (2 Bft) 95,65 %
24.07.2019 01:31 23,2 C 16,1 C 56 % 1018,9 hPa 0,0 l/m 4,8 km/h (1 Bft) O-NO 67 0,000 mm 0,0 UV-I 0 W/m 13,9 C 23,2 C 6,4 km/h (2 Bft) 95,65 %
24.07.2019 01:30 23,2 C 16,1 C 56 % 1019,0 hPa 0,0 l/m 4,8 km/h (1 Bft) O-NO 67 0,000 mm 0,0 UV-I 0 W/m 13,9 C 23,2 C 9,7 km/h (2 Bft) 100,00 %
24.07.2019 01:29 23,2 C 16,1 C 56 % 1019,0 hPa 0,0 l/m 4,8 km/h (1 Bft) O-NO 67 0,000 mm 0,0 UV-I 0 W/m 13,9 C 23,2 C 9,7 km/h (2 Bft) 100,00 %
24.07.2019 01:28 23,3 C 16,1 C 56 % 1019,0 hPa 0,0 l/m 3,2 km/h (1 Bft) O-NO 67 0,000 mm 0,0 UV-I 0 W/m 14,0 C 23,3 C 4,8 km/h (1 Bft) 95,65 %
24.07.2019 01:27 23,3 C 16,1 C 56 % 1018,9 hPa 0,0 l/m 4,8 km/h (1 Bft) O-NO 67 0,000 mm 0,0 UV-I 0 W/m 14,0 C 23,3 C 6,4 km/h (2 Bft) 86,96 %
24.07.2019 01:26 23,3 C 16,1 C 56 % 1019,0 hPa 0,0 l/m 4,8 km/h (1 Bft) O-NO 67 0,000 mm 0,0 UV-I 0 W/m 14,0 C 23,3 C 6,4 km/h (2 Bft) 95,65 %
24.07.2019 01:25 23,4 C 16,1 C 55 % 1018,9 hPa 0,0 l/m 3,2 km/h (1 Bft) O-NO 67 0,000 mm 0,0 UV-I 0 W/m 13,8 C 23,4 C 4,8 km/h (1 Bft) 86,96 %
24.07.2019 01:24 23,4 C 16,7 C 55 % 1019,0 hPa 0,0 l/m 3,2 km/h (1 Bft) O-NO 67 0,000 mm 0,0 UV-I 0 W/m 13,8 C 23,4 C 4,8 km/h (1 Bft) 100,00 %
24.07.2019 01:23 23,4 C 16,7 C 55 % 1019,0 hPa 0,0 l/m 3,2 km/h (1 Bft) O-NO 67 0,000 mm 0,0 UV-I 0 W/m 13,8 C 23,4 C 4,8 km/h (1 Bft) 95,65 %
24.07.2019 01:22 23,4 C 16,1 C 55 % 1019,0 hPa 0,0 l/m 4,8 km/h (1 Bft) O-NO 67 0,000 mm 0,0 UV-I 0 W/m 13,8 C 23,4 C 4,8 km/h (1 Bft) 91,30 %
24.07.2019 01:21 23,4 C 16,1 C 55 % 1019,0 hPa 0,0 l/m 4,8 km/h (1 Bft) O-NO 67 0,000 mm 0,0 UV-I 0 W/m 13,8 C 23,4 C 4,8 km/h (1 Bft) 86,96 %
24.07.2019 01:20 23,3 C 16,7 C 55 % 1018,9 hPa 0,0 l/m 3,2 km/h (1 Bft) O-NO 67 0,000 mm 0,0 UV-I 0 W/m 13,7 C 23,3 C 4,8 km/h (1 Bft) 91,30 %
24.07.2019 01:19 23,3 C 16,7 C 56 % 1019,0 hPa 0,0 l/m 3,2 km/h (1 Bft) O-NO 67 0,000 mm 0,0 UV-I 0 W/m 14,0 C 23,3 C 4,8 km/h (1 Bft) 82,61 %
24.07.2019 01:18 23,4 C 16,7 C 56 % 1018,9 hPa 0,0 l/m 4,8 km/h (1 Bft) O-NO 67 0,000 mm 0,0 UV-I 0 W/m 14,1 C 23,4 C 6,4 km/h (2 Bft) 73,91 %
24.07.2019 01:17 23,4 C 16,7 C 56 % 1018,9 hPa 0,0 l/m 4,8 km/h (1 Bft) O-NO 67 0,000 mm 0,0 UV-I 0 W/m 14,1 C 23,4 C 6,4 km/h (2 Bft) 73,91 %
24.07.2019 01:16 23,4 C 16,7 C 56 % 1019,0 hPa 0,0 l/m 3,2 km/h (1 Bft) O-NO 67 0,000 mm 0,0 UV-I 0 W/m 14,1 C 23,4 C 4,8 km/h (1 Bft) 69,57 %
24.07.2019 01:15 23,4 C 16,7 C 55 % 1019,0 hPa 0,0 l/m 3,2 km/h (1 Bft) O-NO 67 0,000 mm 0,0 UV-I 0 W/m 13,8 C 23,4 C 4,8 km/h (1 Bft) 82,61 %
24.07.2019 01:14 23,4 C 16,7 C 55 % 1019,0 hPa 0,0 l/m 3,2 km/h (1 Bft) O-NO 67 0,000 mm 0,0 UV-I 0 W/m 13,8 C 23,4 C 6,4 km/h (2 Bft) 86,96 %
24.07.2019 01:13 23,5 C 16,7 C 55 % 1019,0 hPa 0,0 l/m 3,2 km/h (1 Bft) O-NO 67 0,000 mm 0,0 UV-I 0 W/m 13,9 C 23,5 C 4,8 km/h (1 Bft) 78,26 %
24.07.2019 01:12 23,6 C 16,7 C 55 % 1019,0 hPa 0,0 l/m 4,8 km/h (1 Bft) O-NO 67 0,000 mm 0,0 UV-I 0 W/m 14,0 C 23,6 C 4,8 km/h (1 Bft) 73,91 %
24.07.2019 01:11 23,5 C 16,7 C 56 % 1019,0 hPa 0,0 l/m 4,8 km/h (1 Bft) O-NO 67 0,000 mm 0,0 UV-I 0 W/m 14,2 C 23,5 C 4,8 km/h (1 Bft) 86,96 %
24.07.2019 01:10 23,6 C 16,7 C 55 % 1019,0 hPa 0,0 l/m 4,8 km/h (1 Bft) O-NO 67 0,000 mm 0,0 UV-I 0 W/m 14,0 C 23,6 C 6,4 km/h (2 Bft) 95,65 %
24.07.2019 01:09 23,6 C 16,7 C 55 % 1019,0 hPa 0,0 l/m 3,2 km/h (1 Bft) O-NO 67 0,000 mm 0,0 UV-I 0 W/m 14,0 C 23,6 C 4,8 km/h (1 Bft) 95,65 %
24.07.2019 01:08 23,6 C 16,7 C 55 % 1019,0 hPa 0,0 l/m 4,8 km/h (1 Bft) O-NO 67 0,000 mm 0,0 UV-I 0 W/m 14,0 C 23,6 C 4,8 km/h (1 Bft) 95,65 %
24.07.2019 01:07 23,6 C 16,7 C 55 % 1019,0 hPa 0,0 l/m 3,2 km/h (1 Bft) O-NO 67 0,000 mm 0,0 UV-I 0 W/m 14,0 C 23,6 C 6,4 km/h (2 Bft) 95,65 %
24.07.2019 01:06 23,6 C 16,7 C 55 % 1018,9 hPa 0,0 l/m 4,8 km/h (1 Bft) O-NO 67 0,000 mm 0,0 UV-I 0 W/m 14,0 C 23,6 C 6,4 km/h (2 Bft) 100,00 %
24.07.2019 01:05 23,6 C 16,7 C 55 % 1019,0 hPa 0,0 l/m 1,6 km/h (1 Bft) O-NO 67 0,000 mm 0,0 UV-I 0 W/m 14,0 C 23,6 C 3,2 km/h (1 Bft) 86,96 %
24.07.2019 01:04 23,6 C 16,7 C 55 % 1019,0 hPa 0,0 l/m 3,2 km/h (1 Bft) O-NO 67 0,000 mm 0,0 UV-I 0 W/m 14,0 C 23,6 C 4,8 km/h (1 Bft) 95,65 %
24.07.2019 01:03 23,6 C 16,7 C 55 % 1019,0 hPa 0,0 l/m 3,2 km/h (1 Bft) O-NO 67 0,000 mm 0,0 UV-I 0 W/m 14,0 C 23,6 C 4,8 km/h (1 Bft) 91,30 %
24.07.2019 01:02 23,7 C 16,7 C 55 % 1019,0 hPa 0,0 l/m 3,2 km/h (1 Bft) O-NO 67 0,000 mm 0,0 UV-I 0 W/m 14,1 C 23,7 C 4,8 km/h (1 Bft) 100,00 %
24.07.2019 01:01 23,7 C 16,7 C 55 % 1019,0 hPa 0,0 l/m 3,2 km/h (1 Bft) O-NO 67 0,000 mm 0,0 UV-I 0 W/m 14,1 C 23,7 C 4,8 km/h (1 Bft) 95,65 %
24.07.2019 01:00 23,8 C 16,7 C 55 % 1019,0 hPa 0,0 l/m 3,2 km/h (1 Bft) O-NO 67 0,051 mm 0,0 UV-I 0 W/m 14,2 C 23,8 C 4,8 km/h (1 Bft) 86,96 %
24.07.2019 00:59 23,8 C 16,7 C 55 % 1019,0 hPa 0,0 l/m 3,2 km/h (1 Bft) O-NO 67 0,000 mm 0,0 UV-I 0 W/m 14,2 C 23,8 C 3,2 km/h (1 Bft) 100,00 %
24.07.2019 00:58 23,8 C 16,7 C 54 % 1019,0 hPa 0,0 l/m 3,2 km/h (1 Bft) O-NO 67 0,000 mm 0,0 UV-I 0 W/m 13,9 C 23,8 C 3,2 km/h (1 Bft) 91,30 %
24.07.2019 00:57 23,8 C 16,7 C 54 % 1019,0 hPa 0,0 l/m 3,2 km/h (1 Bft) O-NO 67 0,000 mm 0,0 UV-I 0 W/m 13,9 C 23,8 C 4,8 km/h (1 Bft) 91,30 %
24.07.2019 00:56 23,8 C 16,7 C 54 % 1019,0 hPa 0,0 l/m 3,2 km/h (1 Bft) O-NO 67 0,000 mm 0,0 UV-I 0 W/m 13,9 C 23,8 C 4,8 km/h (1 Bft) 91,30 %
24.07.2019 00:55 23,8 C 16,7 C 54 % 1019,0 hPa 0,0 l/m 3,2 km/h (1 Bft) O-NO 67 0,000 mm 0,0 UV-I 0 W/m 13,9 C 23,8 C 4,8 km/h (1 Bft) 100,00 %
24.07.2019 00:54 23,8 C 16,7 C 55 % 1019,0 hPa 0,0 l/m 1,6 km/h (1 Bft) O-NO 67 0,000 mm 0,0 UV-I 0 W/m 14,2 C 23,8 C 3,2 km/h (1 Bft) 91,30 %
24.07.2019 00:53 23,8 C 16,7 C 54 % 1019,0 hPa 0,0 l/m 1,6 km/h (1 Bft) O-NO 67 0,000 mm 0,0 UV-I 0 W/m 13,9 C 23,8 C 3,2 km/h (1 Bft) 100,00 %
24.07.2019 00:52 23,8 C 16,7 C 55 % 1019,0 hPa 0,0 l/m 3,2 km/h (1 Bft) O-NO 67 0,000 mm 0,0 UV-I 0 W/m 14,2 C 23,8 C 3,2 km/h (1 Bft) 91,30 %
24.07.2019 00:51 23,8 C 16,7 C 55 % 1019,0 hPa 0,0 l/m 3,2 km/h (1 Bft) O-NO 67 0,000 mm 0,0 UV-I 0 W/m 14,2 C 23,8 C 3,2 km/h (1 Bft) 95,65 %
24.07.2019 00:50 23,8 C 16,7 C 55 % 1019,0 hPa 0,0 l/m 3,2 km/h (1 Bft) O-NO 67 0,000 mm 0,0 UV-I 0 W/m 14,2 C 23,8 C 4,8 km/h (1 Bft) 82,61 %
24.07.2019 00:49 23,7 C 16,7 C 55 % 1019,0 hPa 0,0 l/m 3,2 km/h (1 Bft) O-NO 67 0,000 mm 0,0 UV-I 0 W/m 14,1 C 23,7 C 4,8 km/h (1 Bft) 100,00 %
24.07.2019 00:48 23,7 C 16,7 C 55 % 1019,0 hPa 0,0 l/m 3,2 km/h (1 Bft) O-NO 67 0,000 mm 0,0 UV-I 0 W/m 14,1 C 23,7 C 4,8 km/h (1 Bft) 95,65 %
24.07.2019 00:47 23,6 C 16,7 C 55 % 1019,0 hPa 0,0 l/m 3,2 km/h (1 Bft) O-NO 67 0,000 mm 0,0 UV-I 0 W/m 14,0 C 23,6 C 4,8 km/h (1 Bft) 100,00 %
24.07.2019 00:46 23,6 C 16,7 C 55 % 1019,0 hPa 0,0 l/m 4,8 km/h (1 Bft) O-NO 67 0,000 mm 0,0 UV-I 0 W/m 14,0 C 23,6 C 4,8 km/h (1 Bft) 91,30 %
24.07.2019 00:45 23,6 C 16,7 C 55 % 1019,0 hPa 0,0 l/m 4,8 km/h (1 Bft) O-NO 67 0,000 mm 0,0 UV-I 0 W/m 14,0 C 23,6 C 4,8 km/h (1 Bft) 91,30 %
24.07.2019 00:44 23,5 C 16,7 C 56 % 1019,1 hPa 0,0 l/m 3,2 km/h (1 Bft) O-NO 67 0,000 mm 0,0 UV-I 0 W/m 14,2 C 23,5 C 4,8 km/h (1 Bft) 86,96 %
24.07.2019 00:43 23,5 C 16,7 C 56 % 1019,1 hPa 0,0 l/m 4,8 km/h (1 Bft) O-NO 67 0,000 mm 0,0 UV-I 0 W/m 14,2 C 23,5 C 4,8 km/h (1 Bft) 78,26 %
24.07.2019 00:42 23,5 C 16,7 C 56 % 1019,1 hPa 0,0 l/m 1,6 km/h (1 Bft) O-NO 67 0,000 mm 0,0 UV-I 0 W/m 14,2 C 23,5 C 4,8 km/h (1 Bft) 91,30 %
24.07.2019 00:41 23,5 C 16,7 C 56 % 1019,0 hPa 0,0 l/m 3,2 km/h (1 Bft) O-NO 67 0,000 mm 0,0 UV-I 0 W/m 14,2 C 23,5 C 4,8 km/h (1 Bft) 95,65 %
24.07.2019 00:40 23,5 C 16,7 C 55 % 1019,0 hPa 0,0 l/m 3,2 km/h (1 Bft) O-NO 67 0,000 mm 0,0 UV-I 0 W/m 13,9 C 23,5 C 4,8 km/h (1 Bft) 100,00 %
24.07.2019 00:39 23,5 C 16,7 C 56 % 1019,0 hPa 0,0 l/m 3,2 km/h (1 Bft) O-NO 67 0,000 mm 0,0 UV-I 0 W/m 14,2 C 23,5 C 4,8 km/h (1 Bft) 95,65 %
24.07.2019 00:38 23,5 C 16,7 C 56 % 1019,1 hPa 0,0 l/m 1,6 km/h (1 Bft) O-NO 67 0,000 mm 0,0 UV-I 0 W/m 14,2 C 23,5 C 3,2 km/h (1 Bft) 95,65 %
24.07.2019 00:37 23,5 C 16,7 C 56 % 1019,1 hPa 0,0 l/m 3,2 km/h (1 Bft) O-NO 67 0,000 mm 0,0 UV-I 0 W/m 14,2 C 23,5 C 4,8 km/h (1 Bft) 100,00 %
24.07.2019 00:36 23,4 C 16,7 C 56 % 1019,0 hPa 0,0 l/m 3,2 km/h (1 Bft) O-NO 67 0,000 mm 0,0 UV-I 0 W/m 14,1 C 23,4 C 4,8 km/h (1 Bft) 95,65 %
24.07.2019 00:35 23,4 C 16,7 C 56 % 1019,1 hPa 0,0 l/m 3,2 km/h (1 Bft) O-NO 67 0,000 mm 0,0 UV-I 0 W/m 14,1 C 23,4 C 4,8 km/h (1 Bft) 95,65 %
24.07.2019 00:34 23,4 C 16,7 C 56 % 1019,1 hPa 0,0 l/m 3,2 km/h (1 Bft) O-NO 67 0,000 mm 0,0 UV-I 0 W/m 14,1 C 23,4 C 4,8 km/h (1 Bft) 100,00 %
24.07.2019 00:33 23,4 C 16,7 C 56 % 1019,1 hPa 0,0 l/m 3,2 km/h (1 Bft) O-NO 67 0,000 mm 0,0 UV-I 0 W/m 14,1 C 23,4 C 4,8 km/h (1 Bft) 100,00 %
24.07.2019 00:32 23,4 C 16,7 C 56 % 1019,1 hPa 0,0 l/m 1,6 km/h (1 Bft) O-NO 67 0,000 mm 0,0 UV-I 0 W/m 14,1 C 23,4 C 3,2 km/h (1 Bft) 100,00 %
24.07.2019 00:31 23,4 C 16,7 C 56 % 1019,1 hPa 0,0 l/m 3,2 km/h (1 Bft) O-NO 67 0,000 mm 0,0 UV-I 0 W/m 14,1 C 23,4 C 4,8 km/h (1 Bft) 95,65 %
24.07.2019 00:30 23,4 C 16,7 C 56 % 1019,1 hPa 0,0 l/m 3,2 km/h (1 Bft) O-NO 67 0,000 mm 0,0 UV-I 0 W/m 14,1 C 23,4 C 4,8 km/h (1 Bft) 100,00 %
24.07.2019 00:29 23,4 C 16,7 C 56 % 1019,0 hPa 0,0 l/m 3,2 km/h (1 Bft) O-NO 67 0,000 mm 0,0 UV-I 0 W/m 14,1 C 23,4 C 4,8 km/h (1 Bft) 95,65 %
24.07.2019 00:28 23,4 C 16,7 C 56 % 1019,1 hPa 0,0 l/m 3,2 km/h (1 Bft) O-NO 67 0,000 mm 0,0 UV-I 0 W/m 14,1 C 23,4 C 4,8 km/h (1 Bft) 100,00 %
24.07.2019 00:27 23,3 C 16,7 C 56 % 1019,1 hPa 0,0 l/m 1,6 km/h (1 Bft) O-NO 67 0,000 mm 0,0 UV-I 0 W/m 14,0 C 23,3 C 4,8 km/h (1 Bft) 100,00 %
24.07.2019 00:26 23,4 C 16,7 C 56 % 1019,1 hPa 0,0 l/m 1,6 km/h (1 Bft) O-NO 67 0,000 mm 0,0 UV-I 0 W/m 14,1 C 23,4 C 4,8 km/h (1 Bft) 100,00 %
24.07.2019 00:25 23,4 C 16,7 C 56 % 1019,1 hPa 0,0 l/m 3,2 km/h (1 Bft) O-NO 67 0,000 mm 0,0 UV-I 0 W/m 14,1 C 23,4 C 4,8 km/h (1 Bft) 95,65 %
24.07.2019 00:24 23,4 C 16,7 C 56 % 1019,0 hPa 0,0 l/m 3,2 km/h (1 Bft) O-NO 67 0,000 mm 0,0 UV-I 0 W/m 14,1 C 23,4 C 4,8 km/h (1 Bft) 95,65 %
24.07.2019 00:23 23,4 C 16,7 C 56 % 1019,0 hPa 0,0 l/m 3,2 km/h (1 Bft) O-NO 67 0,000 mm 0,0 UV-I 0 W/m 14,1 C 23,4 C 4,8 km/h (1 Bft) 95,65 %
24.07.2019 00:22 23,4 C 16,7 C 56 % 1019,0 hPa 0,0 l/m 3,2 km/h (1 Bft) O-NO 67 0,000 mm 0,0 UV-I 0 W/m 14,1 C 23,4 C 4,8 km/h (1 Bft) 95,65 %
24.07.2019 00:21 23,4 C 16,7 C 55 % 1019,1 hPa 0,0 l/m 3,2 km/h (1 Bft) O-NO 67 0,000 mm 0,0 UV-I 0 W/m 13,8 C 23,4 C 4,8 km/h (1 Bft) 100,00 %
24.07.2019 00:20 23,4 C 16,7 C 56 % 1019,1 hPa 0,0 l/m 3,2 km/h (1 Bft) O-NO 67 0,000 mm 0,0 UV-I 0 W/m 14,1 C 23,4 C 4,8 km/h (1 Bft) 100,00 %
24.07.2019 00:19 23,4 C 16,7 C 56 % 1019,1 hPa 0,0 l/m 1,6 km/h (1 Bft) O-NO 67 0,000 mm 0,0 UV-I 0 W/m 14,1 C 23,4 C 3,2 km/h (1 Bft) 100,00 %
24.07.2019 00:18 23,3 C 16,7 C 56 % 1019,1 hPa 0,0 l/m 3,2 km/h (1 Bft) O-NO 67 0,000 mm 0,0 UV-I 0 W/m 14,0 C 23,3 C 3,2 km/h (1 Bft) 95,65 %
24.07.2019 00:17 23,3 C 16,7 C 56 % 1019,1 hPa 0,0 l/m 3,2 km/h (1 Bft) O-NO 67 0,000 mm 0,0 UV-I 0 W/m 14,0 C 23,3 C 4,8 km/h (1 Bft) 100,00 %
24.07.2019 00:16 23,3 C 16,7 C 56 % 1019,1 hPa 0,0 l/m 3,2 km/h (1 Bft) O-NO 67 0,000 mm 0,0 UV-I 0 W/m 14,0 C 23,3 C 4,8 km/h (1 Bft) 91,30 %
24.07.2019 00:15 23,3 C 16,7 C 56 % 1019,1 hPa 0,0 l/m 3,2 km/h (1 Bft) O-NO 67 0,000 mm 0,0 UV-I 0 W/m 14,0 C 23,3 C 4,8 km/h (1 Bft) 86,96 %
24.07.2019 00:14 23,3 C 16,7 C 56 % 1019,1 hPa 0,0 l/m 3,2 km/h (1 Bft) O-NO 67 0,000 mm 0,0 UV-I 0 W/m 14,0 C 23,3 C 4,8 km/h (1 Bft) 86,96 %
24.07.2019 00:13 23,3 C 16,7 C 56 % 1019,1 hPa 0,0 l/m 3,2 km/h (1 Bft) O-NO 67 0,000 mm 0,0 UV-I 0 W/m 14,0 C 23,3 C 4,8 km/h (1 Bft) 100,00 %
24.07.2019 00:12 23,4 C 16,7 C 56 % 1019,1 hPa 0,0 l/m 3,2 km/h (1 Bft) O-NO 67 0,000 mm 0,0 UV-I 0 W/m 14,1 C 23,4 C 4,8 km/h (1 Bft) 100,00 %
24.07.2019 00:11 23,4 C 16,7 C 56 % 1019,1 hPa 0,0 l/m 3,2 km/h (1 Bft) O-NO 67 0,000 mm 0,0 UV-I 0 W/m 14,1 C 23,4 C 4,8 km/h (1 Bft) 95,65 %
24.07.2019 00:10 23,4 C 16,7 C 56 % 1019,1 hPa 0,0 l/m 1,6 km/h (1 Bft) O-NO 67 0,000 mm 0,0 UV-I 0 W/m 14,1 C 23,4 C 3,2 km/h (1 Bft) 91,30 %
24.07.2019 00:09 23,4 C 16,7 C 56 % 1019,1 hPa 0,0 l/m 3,2 km/h (1 Bft) O-NO 67 0,000 mm 0,0 UV-I 0 W/m 14,1 C 23,4 C 4,8 km/h (1 Bft) 91,30 %
24.07.2019 00:08 23,3 C 16,7 C 56 % 1019,0 hPa 0,0 l/m 3,2 km/h (1 Bft) O-NO 67 0,000 mm 0,0 UV-I 0 W/m 14,0 C 23,3 C 3,2 km/h (1 Bft) 95,65 %
24.07.2019 00:07 23,3 C 16,7 C 57 % 1019,1 hPa 0,0 l/m 1,6 km/h (1 Bft) O-NO 67 0,000 mm 0,0 UV-I 0 W/m 14,3 C 23,3 C 3,2 km/h (1 Bft) 95,65 %
24.07.2019 00:06 23,3 C 16,7 C 57 % 1019,1 hPa 0,0 l/m 1,6 km/h (1 Bft) O-NO 67 0,000 mm 0,0 UV-I 0 W/m 14,3 C 23,3 C 3,2 km/h (1 Bft) 100,00 %
24.07.2019 00:05 23,3 C 16,7 C 56 % 1019,1 hPa 0,0 l/m 1,6 km/h (1 Bft) O-NO 67 0,000 mm 0,0 UV-I 0 W/m 14,0 C 23,3 C 3,2 km/h (1 Bft) 100,00 %
24.07.2019 00:04 23,4 C 16,7 C 57 % 1019,2 hPa 0,0 l/m 1,6 km/h (1 Bft) O-NO 67 0,000 mm 0,0 UV-I 0 W/m 14,4 C 23,4 C 4,8 km/h (1 Bft) 100,00 %
24.07.2019 00:03 23,4 C 16,7 C 57 % 1019,2 hPa 0,0 l/m 3,2 km/h (1 Bft) O-NO 67 0,000 mm 0,0 UV-I 0 W/m 14,4 C 23,4 C 4,8 km/h (1 Bft) 95,65 %
24.07.2019 00:02 23,4 C 16,7 C 57 % 1019,1 hPa 0,0 l/m 1,6 km/h (1 Bft) O-NO 67 0,000 mm 0,0 UV-I 0 W/m 14,4 C 23,4 C 3,2 km/h (1 Bft) 95,65 %
24.07.2019 00:01 23,4 C 16,7 C 57 % 1019,2 hPa 0,0 l/m 3,2 km/h (1 Bft) O-NO 67 0,000 mm 0,0 UV-I 0 W/m 14,4 C 23,4 C 4,8 km/h (1 Bft) 82,61 %
24.07.2019 00:00 23,4 C 16,7 C 57 % 1019,1 hPa 0,0 l/m 3,2 km/h (1 Bft) O-NO 67 0,051 mm 0,0 UV-I 0 W/m 14,4 C 23,4 C 4,8 km/h (1 Bft) 100,00 %
_ Min-Zeit 06:11 05:29 00:53 04:12 - 00:02 - - - - - 03:54 07:11 00:02 04:34
Minimum _ 18,7 C 15,0 C 54 % 1017,7 hPa - 1,6 km/h (1 Bft) - - - - - 13,7 C 17,3 C 3,2 km/h (1 Bft) 52,17 %
_ Max-Zeit 00:50 00:00 06:25 00:01 00:00 07:11 - - 00:00 00:00 07:22 07:01 00:50 07:11 00:00
Maximum _ 23,8 C 16,7 C 77 % 1019,2 hPa 0,0 l/m 12,9 km/h
O (3 Bft)
- - 0,051 mm 0,0 UV-I 113 W/m 15,3 C 23,8 C 20,9 km/h
O-NO (4 Bft)
100,00 %
Durchschnitt _ 21,4 C 16,1 C 64 % 1018,3 hPa #0,0 l/m 4,8 km/h (1 Bft) O-NO - #0,382 mm 0,0 UV-I 29 W/m 14,1 C 21,3 C 7,3 km/h (2 Bft) 85,46 %